GFSGL_925_spd_000.txt.gz
Wind_Speed
12 12 14 13 12 13 13 12 15 16 18 19 20 20 20 20 20 18 20 17 16 19 19 18 17 19 20 20 20 22 24 20 11 18 20 19 18 18 16 20 19 16 14
13 14 17 15 15 17 14 15 16 16 15 17 19 20 20 20 20 19 20 18 20 19 22 23 23 20 21 20 18 21 21 21 21 16 19 20 22 21 21 20 15 15 18
11 12 15 15 15 15 16 14 13 15 17 18 19 20 20 21 21 19 19 15 15 19 22 26 26 24 23 22 21 20 19 17 19 19 18 20 22 22 22 21 19 18 16
16 13 12 12 10 10 13 13 16 17 19 19 19 18 19 20 20 13 13 17 19 20 22 28 30 28 26 26 20 16 14 19 21 21 21 21 21 21 22 24 24 22 22
17 14 15 14 10 11 8 11 16 18 17 17 19 20 21 19 11 16 15 16 19 22 24 26 28 29 29 24 19 20 19 17 17 18 19 20 19 19 17 16 17 15 14
16 19 20 20 14 8 10 13 16 17 16 19 19 20 18 13 16 16 20 23 21 23 26 27 28 29 28 24 15 18 21 22 21 19 18 17 20 21 20 18 19 14 4
23 19 12 9 11 7 12 13 18 17 19 19 20 18 13 14 12 19 20 21 18 23 26 27 26 24 25 20 16 16 14 14 20 22 21 22 22 25 24 22 19 18 15
30 22 12 10 9 13 7 10 18 18 20 21 18 14 13 12 20 25 21 19 20 21 24 27 26 25 22 21 20 18 18 20 19 19 22 27 25 25 23 21 19 18 21
32 19 20 5 13 9 9 12 18 20 21 14 14 14 17 22 24 21 17 16 18 21 24 25 25 25 25 23 23 20 20 21 21 22 26 28 27 28 29 24 21 17 13
28 19 13 14 13 11 12 16 16 17 16 14 12 14 17 24 20 15 14 15 19 22 23 23 23 23 10 10 12 14 16 17 15 18 21 20 20 21 22 21 24 20 18
19 16 15 17 16 15 13 15 15 18 17 11 14 21 21 19 15 15 12 16 18 22 23 24 24 16 15 15 16 18 18 18 20 20 20 21 21 21 21 22 22 25 21
18 17 16 16 17 14 13 14 19 18 11 13 18 20 19 16 17 18 14 20 23 25 24 23 24 20 17 19 17 14 13 15 18 18 18 18 18 20 20 18 18 20 24
18 21 18 17 15 10 16 18 16 10 12 14 15 18 18 20 21 17 23 24 23 24 23 24 22 15 16 16 14 14 15 13 14 9 12 14 14 16 17 17 18 19 21
18 18 18 16 17 15 15 15 11 12 9 10 13 13 16 18 18 22 25 25 24 22 24 22 15 17 15 20 13 12 11 9 10 12 12 14 13 14 15 14 18 20 18
15 16 19 14 14 15 14 9 8 8 9 10 9 9 12 15 17 21 21 23 23 22 21 14 16 18 19 16 17 16 15 15 14 14 14 14 14 14 14 15 17 11 11
12 15 16 16 14 14 11 12 15 15 12 14 11 10 10 9 16 19 19 21 18 17 14 13 14 16 16 15 14 15 16 15 16 15 14 14 14 15 16 17 18 8 12
11 12 14 15 14 11 10 12 13 15 14 15 11 10 7 10 15 17 19 19 14 14 13 14 13 15 16 17 16 16 16 17 17 19 15 14 14 15 15 15 17 15 14
6 9 10 11 11 11 12 14 14 12 13 13 11 9 5 10 17 13 14 15 15 13 13 14 15 15 16 16 18 18 21 17 19 20 18 17 16 16 14 14 14 14 14
14 8 6 11 12 10 12 12 12 12 12 14 11 6 4 19 14 11 11 12 14 15 14 14 15 15 16 17 19 19 21 19 18 19 20 20 18 15 14 14 13 14 14
13 6 6 10 11 11 9 11 12 10 11 12 12 6 8 17 11 12 12 10 12 13 14 15 14 15 15 16 17 18 19 18 19 19 20 22 22 17 16 13 14 13 13
10 6 10 12 12 9 10 11 10 10 10 12 11 10 8 9 8 9 10 9 11 12 13 14 14 14 15 14 16 17 18 17 17 18 19 21 22 19 19 14 15 14 13
10 10 11 10 11 10 8 11 13 11 11 10 10 10 11 8 6 8 9 9 11 10 12 12 12 12 13 13 14 15 16 16 16 17 17 19 20 20 20 16 13 15 15
11 11 11 12 13 10 8 11 11 12 11 9 11 11 9 9 8 8 9 10 10 11 11 12 12 12 12 12 11 12 14 15 16 15 15 18 18 18 18 18 17 15 15
10 9 12 13 13 11 9 11 9 12 13 13 11 11 10 9 9 10 10 10 10 10 11 12 11 11 13 12 13 13 12 14 14 14 11 16 15 16 14 15 14 17 14
11 12 11 12 12 12 10 10 11 12 13 12 10 11 10 10 10 10 10 10 10 11 11 13 12 11 11 11 12 16 14 14 13 12 10 12 12 13 11 13 13 15 15
10 12 13 13 13 13 12 11 9 13 13 13 12 12 12 12 11 12 11 11 12 10 11 11 12 11 11 8 12 15 14 13 13 10 9 12 11 12 13 11 13 13 13

GFSGL_925_spd_003.txt.gz
Wind_Speed
14 16 13 13 8 3 4 5 8 12 17 16 16 18 19 18 17 18 19 21 21 22 21 19 20 22 23 25 24 20 18 17 14 23 23 18 17 20 20 15 12 19 14
16 13 13 13 9 10 8 5 6 7 8 8 13 16 17 17 19 18 15 10 9 14 17 20 24 25 26 26 26 23 22 20 13 11 13 18 20 21 22 20 11 12 13
21 16 13 13 12 15 6 4 3 5 8 10 10 11 14 16 15 14 10 12 15 17 20 23 26 29 30 28 29 27 15 8 12 9 8 16 20 22 27 26 22 17 13
28 16 18 20 20 5 2 4 8 10 12 10 8 14 18 17 15 12 11 12 15 19 22 25 28 28 28 28 28 25 19 19 17 14 12 12 16 23 23 18 22 19 17
32 31 29 25 8 4 1 2 11 13 9 8 14 15 16 12 13 12 11 14 19 23 24 25 25 25 25 26 22 18 20 15 14 13 15 14 14 16 15 15 17 22 20
31 32 35 15 5 7 11 15 13 4 8 13 15 16 14 10 12 10 14 21 23 20 23 27 25 21 20 22 16 14 11 13 15 15 15 12 14 15 18 19 18 16 5
31 30 22 14 13 9 7 20 8 9 11 17 17 8 7 9 9 17 21 19 18 18 20 25 25 20 23 21 20 19 17 15 13 13 13 16 18 21 21 22 18 13 13
24 26 22 17 13 9 9 11 7 11 15 14 4 8 7 13 17 16 15 16 15 18 20 24 22 23 24 21 23 22 20 20 19 19 19 22 22 23 21 20 19 19 21
19 19 17 13 13 11 16 14 13 12 11 7 5 9 15 17 15 13 17 16 15 18 19 21 22 23 22 20 15 17 18 22 21 16 17 17 17 20 21 20 19 15 14
16 16 19 19 17 17 17 22 14 11 13 5 10 14 15 14 12 16 14 14 18 19 20 21 22 21 21 15 13 17 19 22 20 20 19 20 21 22 21 19 19 15 15
15 17 18 21 22 24 23 5 13 13 6 8 10 12 14 14 17 11 12 18 19 18 20 20 22 22 24 14 17 19 20 18 16 18 19 20 19 17 16 17 20 22 19
16 16 18 17 18 9 12 16 15 6 7 9 12 14 14 17 17 13 18 19 19 21 21 23 26 22 17 18 17 16 11 15 15 16 14 16 15 13 14 15 18 18 21
20 16 16 17 14 16 14 11 6 6 9 9 12 13 15 16 17 19 21 19 18 21 20 21 18 18 16 16 15 14 13 13 9 10 9 10 11 12 14 15 14 15 17
11 14 16 17 17 16 12 9 6 10 11 10 11 12 12 14 16 21 21 22 22 20 21 16 17 17 20 15 17 16 15 15 12 12 12 12 11 11 11 10 13 13 16
10 13 13 15 17 17 11 6 10 10 9 11 11 9 10 11 13 17 20 21 21 17 17 15 17 18 17 19 18 18 18 17 16 14 13 13 12 12 10 10 11 10 10
10 9 11 13 15 12 8 9 12 15 14 14 12 8 7 8 11 14 17 19 16 16 15 16 15 18 17 16 18 19 20 17 17 17 15 13 14 13 14 13 12 13 9
10 10 9 9 10 8 10 14 16 15 13 14 13 7 6 8 10 10 12 14 14 14 16 17 17 17 17 16 18 18 20 19 18 18 18 17 16 16 15 16 16 15 14
9 12 9 9 12 11 12 12 13 14 14 14 12 7 4 5 9 12 9 12 16 15 15 16 17 17 17 16 18 18 20 20 20 19 19 20 20 17 15 15 15 14 14
13 16 12 5 7 10 11 12 11 12 12 11 10 5 2 6 8 8 8 10 12 13 14 15 16 16 17 16 18 18 18 18 18 19 20 21 22 19 17 15 15 13 13
13 9 5 6 8 11 13 9 12 12 10 11 10 5 5 7 6 7 7 8 10 12 12 13 14 14 16 16 16 18 18 19 18 18 18 20 21 21 20 15 15 15 15
10 3 4 8 10 12 10 10 8 13 12 11 10 9 9 8 6 6 8 8 10 12 12 13 13 12 15 16 15 16 16 18 18 17 17 19 19 22 20 19 14 14 14
13 14 13 11 12 14 12 7 11 12 12 12 9 9 10 10 9 8 8 9 10 11 12 12 14 12 13 15 12 14 15 17 17 17 16 17 18 20 17 17 16 15 15
13 13 12 11 13 15 12 10 10 11 11 12 11 11 10 10 9 10 10 10 10 10 11 12 13 13 12 14 11 13 15 15 15 13 14 15 16 17 14 15 14 14 15
12 13 11 11 14 14 12 11 11 9 12 13 13 13 9 9 9 10 11 11 11 11 11 12 13 14 12 13 10 12 16 14 13 11 10 11 14 14 12 12 14 13 13
16 15 14 13 15 15 13 12 12 11 10 12 12 11 10 10 11 11 10 11 11 11 11 12 12 13 12 11 10 12 16 13 12 10 8 9 10 10 12 10 12 11 13
19 18 18 15 16 16 15 14 13 10 12 13 13 13 12 13 12 11 11 13 13 12 12 12 10 12 12 10 10 13 14 12 12 8 7 7 9 9 9 10 10 10 11

GFSGL_925_spd_006.txt.gz
Wind_Speed
19 20 20 19 18 14 7 6 5 4 8 8 8 7 9 9 9 10 11 10 9 6 7 12 16 20 22 25 25 24 20 19 10 16 19 19 13 15 16 14 12 14 13
23 22 22 22 18 16 11 8 12 13 5 6 9 9 11 11 10 11 12 7 5 6 10 15 21 23 26 27 27 26 24 26 18 11 9 9 12 15 17 19 18 10 8
27 27 26 26 28 24 16 13 5 2 10 23 10 11 11 14 16 14 7 5 6 8 14 18 19 22 26 27 27 26 23 25 17 10 9 11 13 17 20 18 16 17 16
25 27 28 27 25 17 5 3 8 12 14 21 11 11 15 15 14 10 8 6 9 16 20 17 19 22 23 25 25 23 20 20 21 16 8 5 5 12 13 12 15 14 18
19 22 20 22 18 13 16 19 15 16 13 11 11 14 15 15 13 9 6 11 18 18 19 17 18 19 20 19 19 15 16 15 12 11 8 3 5 6 7 5 12 18 18
17 15 20 19 17 15 15 15 17 18 7 7 16 15 12 9 10 8 16 16 16 17 16 18 20 20 17 19 18 18 15 13 12 10 9 6 9 10 10 12 12 10 3
10 12 18 18 17 18 17 14 18 12 15 17 12 4 6 6 9 13 14 14 15 15 16 19 19 18 21 22 22 20 20 17 14 14 15 16 15 15 14 14 13 11 11
10 15 17 16 19 18 10 12 13 13 18 9 2 2 6 8 10 10 11 14 14 15 17 19 22 22 21 21 22 17 17 17 16 16 17 17 18 17 16 17 16 13 14
13 14 16 17 18 20 19 22 17 20 7 3 2 4 6 9 8 10 11 12 15 19 21 19 20 20 20 19 21 16 17 19 16 12 12 11 12 12 13 14 13 11 10
13 15 16 16 18 21 22 21 17 6 3 5 4 6 8 8 11 9 13 18 20 18 18 19 17 19 20 21 15 15 16 20 20 17 16 16 18 19 17 17 15 11 7
11 15 16 16 16 13 10 6 9 3 8 6 5 6 8 11 12 11 15 16 17 17 18 17 21 20 17 20 17 16 17 15 16 15 17 18 15 14 14 16 18 21 18
15 16 13 12 12 13 11 10 5 7 5 3 6 6 7 11 14 16 15 15 15 17 17 20 19 19 17 16 15 15 14 10 11 11 13 12 12 11 10 10 12 14 19
13 9 10 12 12 13 9 1 5 4 3 3 5 5 6 11 14 16 17 16 17 15 15 14 15 15 16 14 15 13 13 14 11 11 10 10 10 10 10 11 12 14 15
14 9 10 9 11 11 8 3 4 3 4 4 4 4 6 9 14 15 18 20 17 15 14 13 16 17 15 16 17 18 17 15 13 12 10 11 9 9 8 6 8 9 11
14 9 7 6 8 7 4 4 6 6 5 6 6 5 6 8 11 11 14 17 15 16 12 14 17 19 18 19 20 20 18 19 18 16 14 12 11 10 8 6 4 5 7
13 12 7 6 6 1 2 4 6 7 8 8 8 6 7 7 10 10 10 11 13 11 14 16 16 17 17 17 20 20 21 21 20 18 16 14 14 13 11 11 10 9 7
17 15 11 6 3 4 4 7 11 10 10 8 8 6 6 5 9 7 7 9 13 11 13 14 14 15 16 15 17 16 16 18 17 18 17 17 16 15 14 14 13 12 12
14 9 13 11 5 4 4 7 8 9 11 10 9 6 6 5 7 7 7 10 12 13 12 12 13 13 15 14 15 16 17 18 18 17 18 18 18 16 15 14 12 12 11
13 11 13 9 3 4 7 7 5 8 9 8 8 7 6 5 6 6 7 9 9 10 11 11 10 11 13 12 12 14 15 17 16 15 17 18 18 18 15 15 13 12 12
11 13 4 4 5 7 9 5 7 6 8 8 8 8 7 8 8 7 8 8 8 9 10 10 11 10 11 12 11 13 14 17 16 14 15 16 16 17 17 14 13 12 13
12 10 7 8 8 9 10 9 9 8 11 11 10 8 8 10 10 9 8 10 9 8 9 10 10 12 11 13 11 13 13 14 14 14 14 15 15 16 15 13 12 11 11
14 13 15 14 12 11 15 12 10 9 10 10 10 8 8 11 12 11 10 10 9 9 9 9 10 11 10 11 11 12 14 15 13 13 12 13 14 14 13 12 11 10 12
17 16 15 15 14 12 15 14 12 11 11 9 11 12 13 12 10 9 10 9 10 10 9 9 9 10 10 10 10 10 14 15 12 11 11 11 13 13 11 11 10 9 12
17 16 15 15 13 12 16 15 12 13 11 10 11 9 7 6 8 9 9 9 10 10 10 10 9 10 10 10 10 9 12 13 11 9 7 9 10 11 11 10 9 9 10
18 19 19 19 19 16 17 16 16 14 14 13 10 9 8 6 7 9 9 9 10 10 10 10 9 10 9 10 10 9 11 12 11 8 6 7 8 8 9 8 9 9 9
18 20 22 23 24 25 20 18 18 17 15 13 12 12 11 11 10 9 9 11 11 11 10 10 11 9 9 10 9 9 10 10 9 8 7 7 7 8 6 6 8 7 7

GFSGL_925_spd_009.txt.gz
Wind_Speed
13 15 16 17 19 21 23 20 16 12 6 6 5 8 14 11 9 13 14 17 17 14 9 10 14 16 17 21 22 23 24 21 13 17 23 24 15 12 14 12 13 4 6
14 17 19 20 21 23 23 16 8 9 5 7 9 16 16 14 12 14 16 15 10 11 11 14 19 20 20 21 23 24 22 23 21 17 19 10 8 8 10 13 12 13 11
16 19 21 22 23 23 21 16 18 15 17 22 24 22 18 14 14 16 15 12 13 10 14 19 19 18 20 23 24 25 24 23 22 21 19 19 17 14 13 13 13 13 10
15 18 19 19 19 19 18 14 18 22 21 18 18 17 14 15 15 16 13 11 11 17 20 19 18 18 21 23 24 19 20 17 14 15 17 16 12 10 6 5 9 13 14
13 14 16 16 17 17 19 20 22 19 16 18 13 10 17 14 14 11 10 11 17 19 19 20 19 18 21 20 20 21 22 18 12 11 9 6 7 7 6 3 6 11 15
9 13 14 17 18 18 18 18 16 18 19 9 15 15 16 8 6 7 12 16 18 18 22 21 20 22 20 22 22 20 20 19 15 13 11 7 8 11 8 7 8 4 3
11 13 15 16 17 18 18 15 14 13 8 14 16 11 3 3 7 10 13 15 17 19 19 21 22 19 23 22 21 20 21 19 17 19 16 14 15 18 15 13 11 10 9
13 14 15 18 20 19 18 16 17 15 11 18 8 3 2 7 9 9 11 14 15 17 21 22 21 22 22 21 24 18 17 15 13 13 15 18 19 17 17 17 15 14 13
17 16 17 19 21 21 22 21 16 14 11 4 4 1 4 7 9 9 11 13 17 20 18 20 18 19 19 22 20 18 17 17 17 15 15 16 14 9 13 13 15 12 9
18 16 17 20 19 18 17 11 6 5 3 5 2 2 4 6 8 9 12 15 16 18 21 19 16 16 21 20 20 19 16 19 18 17 17 15 13 16 18 16 14 10 8
17 16 18 15 13 12 13 13 9 7 5 6 1 1 2 5 7 10 11 13 16 17 19 18 19 18 18 17 16 18 16 16 14 16 14 15 12 11 13 17 20 21 18
17 20 18 12 11 10 10 8 5 5 7 4 2 3 3 5 8 11 12 12 14 15 16 17 17 17 16 15 16 16 14 14 13 12 11 12 11 11 9 10 11 14 19
22 25 18 12 10 9 7 4 4 5 3 4 5 5 5 4 7 9 13 13 14 14 13 13 14 15 14 14 15 15 15 16 16 15 14 13 13 12 10 10 11 13 15
23 23 13 12 8 8 5 3 4 2 4 7 7 6 6 5 7 9 12 14 14 15 11 11 13 15 14 15 16 16 17 17 17 15 15 13 12 11 9 6 7 9 13
19 16 11 9 10 4 2 3 3 4 6 8 7 7 7 5 7 8 10 12 14 13 11 11 15 18 17 17 19 18 18 19 21 20 18 16 14 12 10 7 3 4 8
17 17 16 11 8 6 5 4 3 5 7 8 8 7 7 6 6 7 7 8 10 11 9 10 13 15 17 15 18 19 19 20 19 19 17 16 16 15 13 12 10 7 6
19 20 16 9 7 7 8 9 9 7 7 6 5 7 7 6 6 7 7 7 10 10 8 8 9 11 14 13 15 15 17 17 15 16 17 17 16 15 14 13 12 10 10
18 15 12 12 10 10 8 10 8 6 7 7 6 6 7 7 6 6 6 7 9 9 7 8 9 10 12 12 13 13 15 15 14 14 16 17 18 14 14 15 12 11 10
16 15 9 13 11 9 8 10 11 8 7 7 8 7 7 7 7 7 7 8 9 8 7 7 8 9 10 11 11 12 12 14 13 12 14 15 16 16 15 13 13 9 10
16 14 11 9 8 9 10 12 11 11 8 10 10 9 9 8 10 9 10 9 9 9 7 7 8 9 8 10 10 12 12 14 14 13 13 13 14 14 14 13 12 11 11
16 15 14 13 13 11 10 11 12 13 12 12 11 11 12 12 12 11 10 10 10 9 8 7 7 8 8 9 9 9 12 12 12 12 11 12 12 14 12 11 9 9 10
19 18 16 17 17 18 14 13 12 14 15 13 11 10 11 14 15 14 12 11 10 9 9 8 8 7 8 8 9 8 10 12 11 11 10 10 11 11 10 10 9 8 11
23 22 20 18 16 16 15 14 14 15 15 15 13 13 10 13 17 12 11 8 7 9 9 9 9 8 8 8 9 8 9 11 11 10 9 9 10 10 10 9 9 9 11
23 21 20 18 16 16 16 15 16 15 15 17 16 15 12 10 10 9 8 9 9 9 9 10 9 9 9 8 8 8 8 10 10 9 7 8 9 8 9 8 7 7 9
23 20 19 20 19 21 21 23 21 20 19 18 19 19 15 13 11 11 11 10 10 9 10 10 9 9 9 9 9 8 8 9 9 8 7 7 7 8 6 6 7 7 7
22 21 19 21 23 23 24 26 28 27 23 22 21 21 15 14 14 13 13 11 11 11 11 11 11 10 9 9 8 7 7 8 8 8 8 7 7 7 7 4 5 6 6

GFSGL_925_spd_012.txt.gz
Wind_Speed
8 11 13 14 15 17 20 20 19 17 14 14 14 14 10 13 16 17 16 15 16 16 15 13 13 15 19 21 22 23 24 21 16 25 25 27 29 26 20 15 15 17 11
7 10 11 12 14 17 19 19 18 15 15 18 15 11 15 19 15 16 17 17 17 14 13 13 17 21 22 22 21 23 24 24 22 21 25 26 26 24 16 11 12 16 15
6 8 9 12 15 17 19 19 18 18 16 14 14 18 16 12 11 14 16 16 13 13 14 17 21 21 23 23 24 24 24 21 23 17 21 24 26 24 15 17 17 10 11
7 8 11 13 15 18 20 20 20 20 19 19 16 17 9 7 13 15 14 11 12 14 18 20 21 22 22 23 23 22 21 23 22 19 17 17 19 23 19 12 14 12 12
9 10 12 14 16 19 21 21 21 20 18 18 16 8 9 11 17 9 7 10 14 18 21 22 23 21 22 23 22 22 23 20 18 19 14 15 13 9 6 5 9 10 14
12 13 15 16 17 20 23 22 20 18 17 18 8 13 13 12 3 4 9 14 17 20 23 21 23 22 20 20 23 22 22 23 20 18 16 15 15 13 15 12 10 7 3
13 15 18 18 18 22 23 22 21 19 17 12 12 13 4 1 5 8 12 15 17 18 20 23 21 17 20 21 22 22 24 20 18 20 14 15 17 15 15 16 15 12 12
15 18 19 18 19 24 24 23 24 20 17 14 11 3 0 3 7 11 14 14 17 19 19 18 19 19 20 19 24 20 19 19 18 15 17 20 19 18 23 21 18 16 18
18 21 19 16 20 23 22 21 17 12 8 4 3 2 3 4 8 11 11 15 16 17 17 18 16 17 18 22 23 20 18 18 16 17 17 16 18 20 19 13 19 14 12
21 20 17 16 20 19 18 13 14 11 7 5 6 3 2 4 8 9 10 13 15 18 20 18 15 16 19 20 19 18 19 14 16 16 15 18 16 18 18 18 19 8 7
17 18 19 22 20 16 16 15 15 12 7 7 4 3 4 5 6 8 9 11 15 17 18 19 18 17 20 19 18 19 18 17 15 14 12 12 13 13 14 16 22 23 15
20 21 24 25 16 14 15 14 12 6 6 6 4 5 6 5 5 8 8 10 13 14 17 16 17 17 17 16 15 16 15 15 16 16 15 13 12 14 12 12 13 17 22
19 18 23 16 9 13 13 12 8 5 5 4 8 9 9 8 6 7 8 11 15 13 14 12 14 15 15 14 15 14 15 16 17 16 14 15 15 14 13 12 12 13 14
15 16 18 11 11 10 11 9 6 4 6 9 11 11 10 9 7 7 7 10 14 14 15 13 13 14 14 14 16 16 16 16 15 15 16 17 15 12 11 8 8 11 13
15 16 20 17 15 10 8 7 6 7 9 11 12 10 11 11 7 6 7 9 11 14 14 12 14 16 19 18 19 18 19 19 19 19 19 18 17 16 15 13 5 5 9
16 17 19 17 17 9 10 10 9 9 8 10 11 12 11 10 7 6 7 7 9 12 12 12 13 14 16 16 17 19 19 21 19 17 18 17 16 17 16 16 15 12 8
16 18 18 17 12 10 10 13 14 12 11 9 10 10 11 9 8 7 7 7 8 10 11 10 12 12 14 14 14 15 17 18 16 15 16 17 17 15 16 15 16 14 12
17 17 16 15 12 11 14 13 11 14 13 12 9 9 11 11 10 9 8 9 10 9 9 10 11 12 12 13 12 13 14 16 15 14 15 15 16 14 15 15 13 13 12
18 18 18 14 14 16 13 11 13 16 16 14 12 11 11 11 11 11 10 12 12 11 10 10 10 11 11 11 11 10 11 12 12 12 13 14 14 13 13 12 13 10 11
21 17 17 16 14 12 13 15 15 16 17 16 15 13 12 11 13 14 13 12 14 13 11 11 10 9 11 10 10 10 11 11 11 11 10 11 12 12 11 12 11 11 12
21 21 18 20 18 19 17 16 16 15 16 17 18 15 13 14 16 15 13 14 14 13 12 12 10 10 9 10 10 10 10 11 11 10 10 10 11 13 12 11 10 9 12
23 20 21 24 24 23 22 21 20 18 16 17 19 16 15 15 16 17 18 16 14 13 12 13 12 11 9 10 10 10 9 11 11 11 10 10 11 11 12 11 11 10 12
22 22 25 24 21 23 22 20 20 21 19 18 18 20 19 18 17 17 19 16 14 13 13 14 13 12 11 10 10 10 10 9 11 11 10 9 10 11 11 11 11 10 12
22 22 23 24 21 19 19 20 20 20 20 21 20 22 23 22 20 18 16 14 15 15 14 14 13 12 11 11 10 10 9 9 9 10 10 9 9 9 10 9 9 9 10
22 21 22 23 21 19 21 22 24 25 27 27 26 25 25 26 24 21 19 17 17 16 15 14 14 12 12 11 11 10 9 8 9 8 8 8 8 8 9 7 8 8 8
19 19 20 21 21 21 23 25 27 28 28 29 29 30 28 27 28 26 20 19 19 18 16 15 15 14 13 12 11 11 9 8 8 8 8 8 7 7 7 7 5 6 7

GFSGL_925_spd_015.txt.gz
Wind_Speed
5 5 7 9 11 15 18 20 20 20 19 15 13 13 12 10 12 18 14 14 15 14 13 12 13 12 14 16 17 19 20 21 20 33 29 29 29 27 26 25 22 19 14
0 3 6 8 11 13 16 18 19 19 17 15 15 14 11 15 20 17 10 12 13 13 11 11 13 14 18 19 20 21 21 22 23 29 28 26 24 24 24 24 21 16 14
3 4 6 8 11 13 15 18 20 19 17 16 13 15 19 16 15 9 10 12 10 8 9 11 15 17 20 22 22 24 22 22 21 23 28 27 25 22 22 19 18 17 13
5 7 8 9 12 14 17 19 19 19 17 14 15 15 13 8 9 9 9 7 6 8 10 14 16 18 20 22 23 21 22 20 22 23 25 24 23 22 18 19 19 16 13
8 11 11 12 13 15 18 22 20 19 16 14 15 13 9 10 10 5 3 5 8 12 15 16 16 17 19 20 20 21 22 22 21 21 22 21 20 18 15 11 15 17 14
11 13 13 14 15 17 19 23 21 18 16 14 10 9 12 8 3 3 6 7 10 13 15 17 18 16 15 17 18 18 19 21 22 22 22 19 21 19 18 13 10 10 9
13 14 14 17 17 17 19 20 19 17 16 12 10 10 4 1 2 6 9 8 11 13 15 16 16 15 16 16 17 20 20 18 20 22 22 20 18 17 18 18 14 13 16
13 13 17 18 17 16 18 17 17 16 12 8 8 3 3 1 5 8 12 10 11 12 13 14 15 16 15 17 21 20 18 18 18 18 19 19 19 19 18 17 18 17 18
13 16 17 17 16 14 15 15 15 12 10 7 4 4 4 1 5 9 10 10 11 13 13 14 14 15 16 19 20 19 19 20 15 16 19 19 19 18 18 18 18 15 14
12 14 16 15 15 16 15 14 14 12 11 9 5 5 4 3 6 8 9 9 12 14 14 14 13 14 17 19 19 18 19 19 21 19 17 15 14 15 16 17 18 17 13
14 17 15 14 17 16 12 12 13 11 9 7 7 5 5 6 6 7 8 8 11 14 14 14 13 15 18 18 16 14 17 20 18 16 16 15 13 13 12 11 13 18 19
14 14 12 15 16 9 9 10 10 9 6 7 7 7 8 9 8 8 8 8 9 12 13 13 14 17 17 15 13 14 15 14 14 14 14 13 12 12 11 11 11 12 17
14 12 11 14 11 9 10 9 8 6 5 6 7 8 8 9 9 9 10 9 10 11 11 13 14 15 15 12 12 13 12 12 13 14 14 14 14 14 13 12 11 11 12
10 10 13 13 14 12 11 9 7 6 6 7 9 10 9 8 9 9 9 8 9 10 12 12 11 12 12 11 11 11 11 11 10 12 14 15 14 13 11 8 7 7 10
8 10 14 15 15 13 12 10 7 7 8 9 10 10 10 10 10 10 8 8 8 10 13 9 9 10 12 12 11 11 12 12 11 12 14 15 14 14 14 13 9 3 7
9 10 12 12 13 12 11 9 11 11 12 12 13 14 15 14 12 10 9 9 9 11 9 9 9 9 10 12 12 12 11 13 12 12 12 13 14 14 14 14 13 11 9
11 12 12 12 12 10 9 10 11 11 13 13 13 14 15 15 12 12 10 10 10 11 8 9 8 8 9 10 11 11 12 12 12 10 11 12 13 12 12 13 12 12 10
13 13 13 12 12 11 10 11 12 12 11 11 13 13 13 14 14 13 11 10 10 10 9 9 8 8 9 9 9 10 11 11 11 10 10 10 11 11 11 11 11 11 10
13 12 15 15 15 14 15 16 13 11 12 13 14 14 14 14 14 14 14 14 13 13 11 9 8 8 8 8 8 8 9 9 10 10 9 10 10 10 10 10 10 10 10
12 16 18 17 15 13 15 14 13 13 13 14 14 15 12 13 14 14 15 15 14 14 13 11 9 9 8 8 8 8 7 8 8 8 8 8 9 9 9 9 9 9 10
16 17 19 20 14 15 15 17 17 15 14 15 15 16 18 16 15 14 14 16 18 16 15 13 11 11 11 10 8 7 7 7 7 7 8 7 8 8 8 7 8 7 8
17 17 14 16 18 18 16 18 19 16 16 17 17 17 19 20 19 17 17 19 20 20 18 16 14 12 12 10 8 7 7 7 6 6 7 7 7 7 8 7 7 7 7
18 18 16 17 18 19 17 16 17 16 17 17 18 17 16 20 22 21 21 22 22 22 20 19 18 16 15 13 12 10 9 7 6 8 7 6 6 7 7 7 7 7 7
18 17 16 18 18 17 16 15 15 19 19 18 19 19 20 20 24 27 26 24 22 20 20 20 19 17 15 14 13 12 11 10 8 8 7 7 6 6 6 6 6 7 6
17 17 17 17 18 17 15 14 16 18 19 21 21 23 26 27 26 29 30 28 26 23 22 21 21 19 17 16 14 12 11 10 8 8 7 6 6 6 5 5 5 5 6
19 20 17 16 15 14 14 14 14 15 17 19 21 23 24 25 27 30 31 32 31 27 25 24 22 20 18 17 15 13 11 10 8 8 7 6 5 4 4 4 4 4 4

GFSGL_925_spd_018.txt.gz
Wind_Speed
9 7 5 2 2 6 9 13 14 16 17 17 16 16 16 16 17 19 20 19 16 15 16 17 18 20 21 21 23 24 26 27 23 34 32 31 29 27 27 25 27 25 24
7 6 3 1 4 7 10 13 14 16 17 17 16 16 16 18 21 22 18 13 13 15 16 17 19 21 22 24 25 25 26 27 26 31 30 29 28 28 28 26 26 25 24
9 6 4 5 6 9 11 14 15 17 17 17 16 16 16 17 18 15 10 11 13 13 11 14 18 21 24 24 24 25 24 24 23 27 29 28 28 27 26 23 23 25 22
9 7 7 8 9 10 12 14 16 17 17 17 16 16 16 14 11 10 10 11 10 8 10 14 19 19 19 20 23 23 21 21 22 25 27 26 24 23 22 21 20 19 19
9 9 9 9 10 12 14 15 17 18 17 17 16 15 11 10 9 10 10 9 9 12 14 16 16 16 17 16 17 19 20 20 20 22 24 23 23 21 19 20 19 20 19
9 10 10 10 12 14 15 15 16 18 17 16 15 15 12 8 8 6 5 9 12 14 15 15 16 14 13 17 15 16 18 21 23 24 24 22 25 23 18 19 18 17 9
9 9 10 10 13 15 15 15 17 17 15 13 13 11 9 5 5 5 7 9 12 13 13 14 15 14 15 15 17 19 22 19 20 22 25 24 25 23 21 20 19 18 17
7 7 9 12 14 15 15 15 17 15 12 12 11 7 5 5 6 6 9 9 12 11 12 13 14 15 15 14 19 21 20 20 20 20 21 23 24 21 20 19 21 22 21
6 8 9 10 13 14 15 16 16 14 13 12 9 8 7 6 6 6 8 9 10 11 11 12 12 14 13 16 20 21 21 20 17 17 20 22 22 21 19 19 20 19 18
6 7 9 12 13 15 16 16 13 12 12 10 9 8 8 7 8 6 6 8 10 12 12 12 11 10 15 17 18 18 19 19 22 22 20 18 17 16 13 16 18 18 18
6 8 10 11 12 14 14 11 11 11 10 9 7 8 8 8 8 8 7 6 9 11 13 13 12 13 16 17 16 14 17 21 20 18 17 17 15 14 14 14 14 15 17
8 10 11 10 11 12 10 10 12 11 9 8 8 8 9 9 9 9 8 8 8 10 12 13 14 17 17 16 13 15 16 15 15 15 16 16 16 15 15 14 13 14 14
10 11 11 10 11 11 12 14 13 11 10 8 8 10 12 9 9 11 11 9 9 9 11 14 17 15 15 13 11 12 13 13 14 13 15 16 17 17 17 17 14 13 13
10 10 10 10 10 11 11 14 14 11 9 8 10 11 12 10 9 9 8 8 8 9 10 13 13 13 12 12 11 10 11 12 12 13 14 15 15 16 17 15 12 8 9
9 10 10 10 11 12 12 13 14 12 10 9 10 10 10 11 10 9 10 9 8 9 12 11 11 11 11 10 10 10 10 11 11 11 13 14 15 16 17 16 16 10 7
10 11 10 11 11 12 13 12 13 15 13 14 14 14 13 14 14 14 12 11 9 10 10 12 11 11 11 11 10 11 10 11 11 11 12 13 14 15 16 15 14 14 12
11 13 12 12 12 14 14 13 14 11 13 16 17 16 16 16 15 13 13 12 10 10 11 12 11 11 11 10 10 10 10 10 10 10 11 12 13 13 13 13 13 12 12
12 13 14 14 15 15 15 15 13 13 15 14 13 14 15 16 14 15 13 12 12 13 12 11 12 11 11 10 10 9 9 10 10 10 10 10 11 12 12 11 11 11 12
13 14 13 15 17 19 17 16 16 15 15 15 14 14 15 16 16 15 15 16 15 15 13 12 11 11 11 10 9 9 8 9 9 9 9 9 10 10 10 10 10 10 10
12 13 14 17 17 19 19 14 16 16 16 15 15 14 12 10 10 13 17 19 19 17 15 14 12 12 11 10 9 8 8 8 8 8 8 8 9 9 9 10 9 10 9
16 16 17 17 17 18 17 18 18 19 19 17 17 16 16 16 17 16 17 18 20 19 17 16 13 12 11 10 9 9 8 8 7 7 7 7 8 8 9 9 9 9 9
19 20 19 19 17 18 18 18 19 19 20 20 17 17 18 17 18 21 21 20 20 20 19 18 16 14 12 12 10 9 9 8 7 6 7 6 7 7 7 7 8 8 8
17 18 20 19 19 19 19 19 18 19 19 20 18 17 17 19 20 20 22 23 23 21 20 19 20 16 15 14 12 11 10 9 7 6 6 6 6 6 6 7 7 7 7
17 18 18 20 19 19 18 18 17 17 19 19 20 20 21 22 23 25 25 26 27 27 24 21 20 19 16 15 13 12 10 9 7 6 6 5 5 6 6 6 5 5 6
16 17 20 21 20 18 17 15 15 16 16 17 19 21 22 24 25 27 28 28 28 28 27 25 23 21 22 20 17 14 13 13 9 8 6 5 5 6 5 5 5 5 4
15 16 16 17 15 15 14 11 13 14 15 16 17 19 20 21 22 24 25 26 28 29 29 27 29 25 22 21 21 19 16 14 12 10 7 6 6 5 5 5 5 5 4

GFSGL_925_spd_021.txt.gz
Wind_Speed
11 12 10 7 6 5 6 7 9 12 13 15 16 16 16 17 17 19 22 21 21 18 16 14 15 16 18 21 23 24 25 25 21 28 30 30 30 29 29 29 30 30 30
13 12 10 9 8 8 8 9 11 13 14 16 17 17 17 17 16 18 21 19 16 15 12 14 16 18 21 24 24 25 25 27 27 26 30 29 29 28 29 29 28 27 26
12 12 12 11 10 10 10 11 12 13 15 17 17 17 16 16 16 18 16 14 12 12 14 13 16 19 23 23 22 23 25 26 25 23 26 26 27 26 27 26 25 24 25
15 14 13 11 11 12 12 13 14 14 16 17 17 18 17 17 14 11 11 12 12 12 10 13 17 20 18 16 21 20 21 22 22 22 23 25 25 25 25 25 23 22 23
14 13 12 12 12 13 14 14 15 14 16 17 17 17 17 14 10 7 10 10 10 11 14 17 18 15 16 14 14 19 19 20 21 22 22 23 25 24 23 25 23 21 22
14 13 13 12 12 14 14 15 16 15 16 16 16 15 14 9 6 10 6 7 12 14 17 17 16 15 11 16 15 12 16 21 24 24 24 23 25 24 24 23 22 20 12
12 12 12 12 13 14 15 16 16 16 16 16 14 11 11 3 6 6 5 8 12 14 15 14 15 14 14 15 15 18 20 23 24 25 26 24 24 23 24 23 22 20 21
9 9 11 11 14 14 15 16 16 16 16 14 13 11 10 5 8 8 7 8 12 12 12 13 13 13 12 12 17 19 21 21 21 20 21 25 25 27 26 25 25 25 22
10 10 9 10 12 15 16 16 16 16 15 14 13 10 10 8 11 8 7 9 11 11 12 12 11 13 12 16 16 19 21 21 19 20 21 23 25 26 25 22 20 19 16
5 6 8 10 12 15 15 15 16 14 14 13 12 10 9 5 9 11 8 8 10 11 11 11 10 7 12 13 16 18 20 20 23 23 21 20 19 18 17 18 18 17 17
7 8 10 12 13 14 14 15 13 13 12 11 10 10 10 8 10 11 10 7 9 10 11 11 10 13 15 16 15 15 16 21 20 19 19 18 18 17 16 14 15 16 16
6 10 12 13 13 13 15 15 15 15 12 10 9 9 11 11 12 13 12 10 9 9 11 12 12 16 17 15 14 14 21 16 17 17 16 16 16 17 18 18 18 17 16
8 11 13 12 12 14 15 17 17 15 13 11 9 10 12 13 12 14 13 11 11 10 10 12 15 15 14 13 9 16 13 13 15 15 15 16 16 18 20 21 21 15 16
11 12 11 12 13 14 14 14 16 16 13 10 11 11 14 13 8 8 10 11 9 10 11 9 15 14 12 14 13 10 11 12 13 15 15 16 17 17 18 20 22 24 10
9 11 11 13 14 16 15 13 14 15 14 12 11 12 11 9 11 10 9 8 9 8 10 11 12 11 11 12 11 11 11 11 13 13 14 15 16 16 17 20 19 21 14
8 9 12 13 15 15 16 16 15 16 19 18 19 19 18 15 15 15 15 14 14 12 9 12 12 9 10 11 12 11 11 10 11 12 13 13 15 16 17 17 17 17 17
9 11 13 14 16 16 16 16 19 17 15 20 21 22 22 20 17 16 15 14 13 10 11 12 13 10 10 11 11 11 11 10 10 11 11 12 13 14 15 14 14 14 15
12 14 15 15 14 15 19 19 19 19 16 15 17 21 19 19 19 18 16 13 14 16 15 15 13 11 10 11 11 10 10 10 10 10 10 11 11 13 15 13 12 13 13
14 14 14 15 16 19 19 19 21 22 18 18 16 15 17 20 19 18 17 17 17 17 16 16 15 12 11 11 10 8 9 9 9 9 9 9 10 10 12 13 13 12 13
17 17 18 18 18 18 18 20 21 20 18 18 18 17 16 9 12 15 19 23 21 20 19 18 16 14 12 10 10 9 10 9 8 8 8 8 8 9 10 11 12 13 12
18 16 16 17 20 21 20 18 19 20 19 19 21 21 20 18 16 17 17 19 23 22 20 20 18 17 14 12 12 11 10 10 8 7 7 7 7 9 9 9 9 11 11
17 16 18 19 20 21 21 19 19 21 21 20 21 20 22 21 19 20 20 21 21 22 22 21 20 18 17 16 14 13 11 10 9 8 7 6 7 7 8 9 8 9 9
18 18 18 19 18 22 25 24 22 20 20 19 20 20 20 20 21 22 22 23 23 23 24 24 24 22 20 19 18 16 13 11 9 8 8 7 6 6 6 7 8 8 8
20 19 18 18 20 22 24 24 21 19 19 17 19 21 20 21 21 23 25 25 26 27 28 27 27 26 24 24 23 21 16 13 10 9 9 7 6 5 5 6 6 5 7
23 21 18 19 19 16 19 19 18 18 16 14 16 17 17 18 19 21 23 24 26 27 29 30 30 29 28 27 26 24 19 18 15 11 10 8 7 6 5 5 4 6 4
27 25 19 17 14 15 16 16 16 15 14 16 17 17 16 16 16 18 20 21 22 24 25 27 30 34 32 29 30 27 22 22 18 16 12 10 8 7 7 6 4 4 4

GFSGL_925_spd_024.txt.gz
Wind_Speed
16 15 15 15 14 10 7 5 3 6 8 10 13 14 16 17 17 13 14 17 16 18 17 10 11 15 10 12 14 18 19 20 16 23 25 23 26 26 27 28 29 30 31
16 16 16 16 13 13 8 5 6 7 9 11 13 16 16 18 15 15 16 17 13 14 11 8 8 11 13 14 17 16 18 21 23 22 24 24 24 25 26 27 26 26 29
16 18 16 16 13 10 7 6 7 9 10 10 14 16 17 18 14 11 10 11 10 10 10 9 10 12 15 13 13 17 20 20 21 22 24 24 23 23 26 26 26 26 25
16 14 18 18 16 8 6 7 9 11 11 11 14 15 18 18 14 8 7 8 12 10 8 8 12 13 11 13 13 15 15 18 20 20 21 22 22 24 24 23 23 24 25
14 19 18 12 6 8 8 9 10 11 13 14 13 14 16 14 8 4 5 10 9 7 9 12 14 14 15 15 13 14 13 16 18 20 20 22 21 19 19 21 20 23 27
19 19 8 6 7 5 9 10 13 15 14 13 13 14 10 8 7 5 7 4 7 12 12 12 13 13 8 11 10 8 13 17 21 21 22 21 22 21 20 20 21 20 13
16 10 9 5 6 9 11 11 13 15 14 14 14 12 11 8 8 6 4 5 7 11 12 12 13 12 13 12 13 16 19 19 22 24 23 21 19 18 21 22 22 21 22
8 2 6 9 7 9 11 14 15 13 13 15 14 12 9 9 9 7 6 5 6 11 10 11 12 9 13 13 16 21 17 19 20 21 18 21 22 25 27 24 25 25 26
8 10 7 6 10 12 12 13 13 15 16 14 15 12 8 10 9 9 7 4 6 10 10 11 12 10 12 14 19 17 18 19 18 21 25 22 22 23 24 25 23 18 18
9 8 16 11 11 13 14 14 16 15 15 13 8 8 6 6 7 9 7 6 6 9 10 10 14 7 10 13 14 15 17 18 23 26 22 22 22 22 20 18 18 17 16
13 6 8 9 10 12 15 15 15 16 17 16 13 11 9 9 10 11 11 11 7 8 8 10 8 9 14 19 13 13 14 19 19 20 20 21 20 18 21 21 20 19 18
4 7 9 11 11 12 11 14 16 18 20 16 11 11 9 11 16 16 15 11 9 11 11 11 12 14 17 13 11 12 14 15 17 16 20 18 19 21 23 25 25 26 27
10 9 10 11 11 11 12 14 16 15 18 16 13 10 12 14 15 18 18 15 12 12 10 11 13 14 15 15 12 15 15 13 12 16 18 17 19 22 23 23 26 26 29
8 10 11 10 11 13 14 15 15 9 15 17 15 13 13 14 11 12 14 15 14 14 12 11 10 16 14 13 13 11 9 11 12 14 15 19 19 20 21 21 24 24 23
10 10 10 11 13 15 15 16 11 14 15 20 19 16 14 11 10 7 8 11 14 15 11 12 13 14 11 10 12 12 10 10 11 11 15 18 18 18 19 21 20 20 17
9 10 10 12 13 14 16 16 15 18 19 20 21 22 21 19 18 16 14 15 15 14 14 11 13 16 12 10 12 13 10 9 7 15 13 15 16 18 19 21 17 17 16
13 12 12 12 13 14 14 17 17 20 20 21 20 21 24 25 21 19 16 16 15 15 15 13 16 17 13 11 12 13 9 6 9 10 11 14 14 16 19 19 17 16 16
14 14 16 18 11 12 13 17 19 21 21 21 20 19 20 21 24 22 21 17 15 17 19 18 19 18 16 14 11 10 7 9 11 10 11 13 12 14 16 17 18 18 17
18 20 20 18 17 18 21 22 21 20 21 22 22 20 20 21 21 21 20 22 21 21 20 22 23 22 20 17 14 11 9 10 11 13 10 10 11 11 14 12 16 18 19
21 20 22 24 21 18 18 19 20 20 19 19 18 20 20 19 21 22 25 25 24 24 23 23 23 19 16 14 13 11 11 11 12 10 9 9 9 9 12 12 11 14 17
23 23 20 15 17 19 20 20 20 20 20 17 20 21 22 21 20 22 24 24 26 26 25 25 24 24 23 21 19 16 15 14 13 11 10 10 8 9 11 10 11 9 12
24 25 23 20 21 20 20 18 20 21 21 21 21 22 21 22 23 25 22 21 22 25 26 25 25 24 23 24 23 20 17 17 15 13 11 10 9 9 9 8 9 8 8
27 28 28 26 24 21 18 19 20 20 21 21 20 20 19 18 20 26 25 24 24 23 24 24 26 27 26 25 25 23 22 19 16 15 14 12 10 9 7 7 7 7 6
29 26 28 30 24 17 17 17 15 18 22 20 18 16 15 16 17 18 21 25 24 24 24 25 26 28 28 27 28 26 26 21 18 18 17 15 12 9 8 6 5 5 5
28 25 24 24 26 22 15 11 10 12 14 14 14 12 12 12 13 15 15 16 16 16 19 22 24 26 29 32 31 29 27 25 22 21 18 13 14 11 10 8 6 5 6
27 25 20 20 21 17 3 7 10 12 13 14 14 14 14 14 14 14 16 18 17 17 17 20 21 21 24 30 34 34 30 28 25 24 20 15 13 12 10 9 8 5 5

GFSGL_925_spd_027.txt.gz
Wind_Speed
23 18 11 13 13 13 10 10 6 5 4 6 8 10 13 15 17 9 12 13 13 10 8 6 4 5 3 4 6 7 6 11 7 14 20 20 25 24 26 24 25 27 25
21 15 11 14 14 13 11 9 7 7 5 6 7 9 13 14 15 16 15 12 9 7 5 3 2 1 3 5 8 7 11 16 14 14 22 24 23 23 25 26 27 24 27
22 16 14 15 15 13 12 10 8 6 6 8 9 10 13 15 16 14 7 6 6 5 5 5 5 8 9 7 8 13 15 16 17 18 21 23 24 26 26 26 24 24 23
23 16 16 17 18 13 15 8 5 6 7 9 11 13 12 14 13 6 5 4 4 5 4 4 8 7 7 11 12 11 11 13 16 19 20 20 21 26 24 21 20 21 25
21 19 16 14 18 15 5 3 2 7 11 15 17 13 12 9 9 11 9 9 7 2 6 6 6 9 10 9 7 10 10 15 17 19 18 19 21 20 18 17 20 23 28
25 18 13 9 11 9 4 6 7 8 11 15 13 12 11 11 10 10 8 7 6 5 7 7 7 8 6 3 5 4 8 14 17 18 18 18 20 19 17 21 23 21 13
17 13 15 11 5 6 7 12 14 17 16 11 11 12 13 13 11 9 8 7 6 4 6 8 9 9 10 9 13 16 18 20 14 18 22 16 20 21 21 23 22 19 21
19 20 13 9 6 9 9 11 15 14 14 14 15 13 15 13 11 12 11 8 6 6 7 8 8 10 10 13 16 17 19 17 15 15 19 25 22 21 23 23 27 27 28
21 21 17 14 10 6 9 16 15 14 18 19 18 15 10 9 10 11 10 9 7 8 9 8 8 8 11 9 14 18 20 18 13 15 16 17 18 19 18 20 18 16 15
22 18 15 8 4 10 13 11 15 18 17 16 14 10 12 12 10 13 14 12 10 9 8 8 9 9 8 12 16 17 16 15 16 18 19 20 20 17 17 17 19 18 19
16 10 4 3 9 9 10 16 10 13 18 19 21 18 16 16 12 14 15 14 12 10 11 11 9 9 11 13 15 12 13 14 17 17 18 21 21 21 21 21 22 22 22
5 3 4 7 9 10 10 10 15 18 17 17 18 16 15 15 15 16 17 17 14 12 12 11 10 11 14 15 12 12 15 14 16 16 17 18 20 23 23 23 22 23 23
2 5 10 8 11 8 12 14 16 17 15 13 17 18 15 17 19 19 19 19 17 17 15 11 10 11 13 14 14 15 16 15 14 15 16 16 17 21 21 23 22 22 25
7 9 10 9 10 12 14 14 16 19 11 15 18 19 19 18 21 18 19 18 19 19 18 15 14 13 14 14 14 12 12 11 11 10 12 15 17 18 22 21 24 24 23
10 12 13 12 12 13 14 14 15 11 15 20 22 23 23 21 19 15 14 16 20 20 18 17 16 16 15 14 15 13 12 12 11 10 13 12 16 17 21 21 20 21 17
14 14 14 14 15 14 16 16 13 18 16 18 22 23 28 26 21 21 20 16 16 17 17 20 21 18 16 17 17 14 12 12 8 8 9 11 14 16 18 19 18 18 16
17 19 18 17 18 18 19 16 20 22 23 25 23 21 20 23 23 23 23 22 19 18 19 21 22 20 20 19 18 15 14 9 8 9 10 12 12 13 16 18 18 17 17
21 21 22 22 22 23 20 19 23 23 24 27 25 22 19 21 23 25 25 25 20 20 22 24 24 23 23 22 21 18 14 11 10 10 10 10 10 11 13 15 16 16 17
23 25 26 29 30 28 27 27 30 26 28 28 29 28 24 20 20 23 25 25 25 26 28 28 27 27 26 24 22 21 19 16 12 10 11 10 9 9 11 12 14 14 15
25 27 28 31 30 26 27 24 24 24 25 24 23 27 27 22 22 22 24 28 27 30 29 29 28 28 26 24 22 22 20 18 14 12 11 10 9 9 11 10 12 12 13
26 27 26 26 23 24 26 23 23 25 26 23 24 27 23 23 22 21 23 27 30 31 31 30 28 29 30 29 25 22 24 22 17 14 13 13 10 9 9 9 10 8 9
23 24 25 27 27 23 26 30 29 28 21 23 25 28 25 21 24 22 22 24 33 35 30 27 28 27 27 27 27 27 27 25 21 18 17 14 12 10 8 9 7 6 6
28 27 27 26 27 27 27 30 33 21 16 18 19 22 23 19 17 17 17 19 25 27 26 24 26 27 26 27 28 28 30 29 25 21 19 17 14 12 9 8 6 5 5
26 26 27 27 27 25 25 27 22 20 8 6 9 12 13 12 12 12 12 13 15 15 23 23 22 23 25 25 28 31 30 29 26 23 20 18 17 14 12 9 6 4 3
25 26 23 26 25 26 26 28 25 22 16 14 12 13 13 14 15 15 15 17 17 16 13 11 14 17 19 21 25 30 32 30 29 26 22 20 18 17 16 12 10 7 5
26 23 26 24 24 25 24 24 23 22 21 20 19 18 17 18 18 19 17 16 19 21 20 19 19 18 14 17 18 23 28 33 32 30 25 22 20 18 18 13 11 8 6

GFSGL_925_spd_030.txt.gz
Wind_Speed
31 29 24 20 17 17 14 12 11 8 5 7 6 6 7 10 12 13 13 14 13 9 8 9 6 6 8 5 6 6 5 5 6 11 21 22 24 25 25 24 24 23 21
34 30 25 20 19 20 17 15 14 9 12 9 8 8 9 11 12 14 15 13 12 10 8 6 5 6 5 7 7 8 7 9 8 12 18 23 26 22 23 25 22 21 22
34 30 24 22 22 22 19 17 16 14 12 11 10 10 12 12 11 13 15 11 9 5 9 7 6 6 8 9 8 10 9 8 10 11 17 24 24 23 26 25 22 25 25
35 30 26 25 23 23 19 15 17 15 11 9 11 14 14 13 12 14 11 10 9 9 6 6 6 7 6 8 10 8 8 10 13 17 20 19 18 24 23 21 21 22 29
36 31 27 24 22 22 19 16 13 6 3 8 12 15 17 14 14 14 12 10 10 7 6 5 5 7 8 7 8 8 7 11 14 18 16 16 17 17 16 20 21 24 30
35 30 23 21 18 16 17 13 7 5 4 9 16 17 13 16 15 14 12 10 10 9 8 8 8 10 10 9 8 7 8 11 15 15 15 14 14 20 22 21 23 20 10
22 20 17 20 22 17 13 10 10 6 12 14 12 13 14 14 16 16 13 12 12 10 9 9 9 11 10 10 10 10 11 15 15 14 17 15 19 23 22 23 20 19 21
20 21 24 22 21 18 14 9 4 11 13 11 15 16 17 15 15 16 14 13 12 11 10 10 12 12 12 11 11 13 15 18 15 12 13 20 19 22 22 23 23 23 22
23 24 23 20 15 10 6 3 11 7 10 15 13 15 16 16 12 15 16 17 15 13 11 12 13 13 11 12 11 14 18 17 10 10 12 16 18 16 15 18 17 16 18
26 21 11 7 4 1 5 9 8 13 9 10 16 16 15 17 15 15 17 18 16 15 13 12 13 14 12 10 12 15 15 12 12 14 16 17 17 18 16 14 16 16 17
11 7 0 3 1 7 8 10 11 7 12 14 13 14 15 15 20 17 18 20 20 18 16 15 14 15 14 12 11 13 12 12 15 17 20 20 19 20 18 17 17 17 18
3 4 1 3 9 8 9 8 10 13 14 15 15 15 20 17 18 21 21 22 21 21 20 17 15 14 15 13 13 13 13 14 18 20 21 21 18 19 19 20 18 16 16
4 1 7 7 8 9 8 12 13 13 15 19 16 17 19 17 16 19 24 27 25 26 23 20 17 15 15 15 14 13 15 16 18 19 18 17 16 17 19 20 18 16 17
4 6 8 10 10 12 14 14 14 15 18 18 18 21 23 23 22 20 20 24 31 27 25 23 21 19 18 17 16 15 15 14 16 17 16 14 15 16 18 18 19 20 20
11 13 14 14 14 16 16 16 16 17 15 15 19 21 23 26 28 25 23 21 24 27 23 25 22 22 22 21 19 16 16 16 15 17 14 13 13 13 16 17 17 18 16
15 17 18 18 19 19 20 23 20 20 19 20 22 23 27 26 27 25 25 22 22 23 22 23 24 26 27 25 22 19 17 17 15 14 12 12 11 11 13 16 16 17 16
20 24 26 26 25 26 26 26 26 30 26 27 27 25 24 25 24 23 23 24 25 24 22 20 20 25 27 27 24 21 19 18 15 14 11 10 9 9 11 13 15 16 17
20 20 22 25 27 29 31 32 32 27 25 25 27 26 26 23 24 23 24 25 26 26 27 28 30 29 27 26 25 22 20 18 17 15 12 8 9 9 11 11 12 15 15
22 24 24 25 24 24 25 27 28 28 27 24 28 27 24 20 23 22 22 22 22 24 27 30 32 31 28 26 25 23 20 20 21 19 15 12 9 9 10 10 10 12 13
21 21 23 24 24 25 25 25 24 25 25 26 22 23 21 21 21 20 21 20 19 25 27 29 31 30 29 26 25 23 22 22 23 23 19 14 11 9 10 9 8 10 10
25 25 24 23 24 25 26 24 24 26 25 23 28 28 24 21 21 22 23 22 21 23 26 30 31 31 29 26 25 24 23 23 24 24 21 17 13 12 9 8 7 7 7
21 22 22 21 23 25 25 26 27 27 28 30 29 25 15 18 19 21 19 20 20 19 23 29 31 31 28 26 24 24 26 27 27 26 24 19 15 13 11 9 7 5 4
21 21 21 21 22 24 25 24 25 28 28 24 15 4 8 9 9 9 8 9 11 12 16 20 27 27 26 24 24 23 23 26 27 26 27 22 19 17 13 11 8 5 3
20 18 24 21 21 23 22 22 23 26 26 27 26 25 24 21 17 16 15 15 16 17 16 14 13 12 24 21 21 21 22 24 26 25 24 24 22 18 16 13 10 7 4
19 18 24 21 23 22 21 23 22 22 22 22 23 24 23 23 21 19 16 15 17 19 19 18 18 17 13 7 12 17 19 20 23 27 26 25 24 21 19 16 14 10 7
18 18 22 21 23 21 20 22 21 21 22 22 21 20 21 22 22 22 20 21 22 22 20 19 18 17 16 19 18 14 15 19 21 23 28 27 26 24 21 18 16 13 10

GFSGL_925_spd_036.txt.gz
Wind_Speed
32 30 32 32 31 29 31 36 34 32 27 16 16 13 14 9 9 8 9 10 11 11 13 14 13 12 11 12 12 11 12 13 10 12 15 15 19 21 23 22 21 22 21
28 27 27 28 25 26 32 35 35 33 23 18 16 17 14 10 10 10 13 13 12 13 14 15 13 11 13 13 14 13 14 16 15 15 19 17 21 24 24 22 22 19 23
25 24 25 27 28 31 33 35 32 28 18 20 17 16 13 11 10 14 16 15 15 15 16 16 15 14 14 14 15 16 17 16 15 16 17 18 22 24 24 23 21 25 25
24 26 28 29 26 25 24 24 24 19 20 22 17 14 10 5 14 20 19 19 19 18 17 17 17 17 17 16 16 16 16 16 15 15 17 21 20 22 21 17 22 21 25
19 22 23 23 22 21 19 20 18 16 15 10 5 4 4 14 19 21 23 22 21 19 18 18 18 19 17 16 16 16 16 16 15 14 17 16 17 16 14 19 20 25 23
20 21 16 15 12 13 15 17 16 19 17 10 4 6 13 16 19 19 18 21 22 22 20 19 19 18 17 16 15 15 15 16 15 14 15 14 17 17 18 19 20 17 12
12 12 11 11 13 16 19 19 17 13 8 3 2 11 13 15 20 19 19 20 23 24 22 22 21 20 17 16 15 16 16 15 15 15 18 20 17 16 17 19 16 19 21
17 17 18 21 24 21 16 14 9 7 8 9 8 10 17 18 15 17 18 19 22 25 25 23 23 21 19 18 16 18 19 17 16 16 19 15 14 14 16 18 21 24 21
23 24 24 22 19 14 10 7 4 10 11 9 10 17 16 19 20 19 19 19 21 24 25 24 24 23 21 18 18 20 20 19 16 16 13 12 13 14 15 17 20 15 18
25 22 16 12 7 4 1 6 7 9 11 14 17 15 18 19 14 13 16 19 22 25 26 26 25 26 23 20 20 20 21 21 16 14 13 14 14 15 15 15 16 14 15
13 10 6 3 3 6 5 6 10 12 15 17 16 20 21 18 19 17 16 18 21 25 28 27 27 29 27 24 22 22 23 17 15 15 16 16 17 17 16 15 15 16 16
8 8 7 4 2 5 8 9 11 14 15 18 21 25 23 22 21 20 19 19 20 22 27 29 30 28 28 29 25 24 20 18 17 17 19 21 20 18 15 15 16 17 17
9 8 7 7 7 8 10 12 14 16 18 22 24 27 30 28 23 20 23 22 20 22 26 27 28 29 29 28 29 25 22 21 20 20 22 22 19 17 15 16 16 16 18
10 11 11 12 12 13 14 15 17 20 23 25 26 25 30 33 31 27 26 22 20 21 24 27 29 27 26 27 29 27 26 25 23 22 22 20 18 17 16 15 15 16 18
11 12 13 14 15 17 17 18 20 21 21 24 24 27 25 29 31 34 33 29 25 25 22 21 23 24 22 23 27 28 29 26 25 24 21 20 19 17 15 13 12 13 13
14 14 15 17 18 19 21 23 21 20 21 23 25 26 32 31 35 36 36 35 30 26 20 19 20 20 21 22 24 26 29 28 27 26 22 20 19 16 14 12 10 11 13
14 14 17 19 19 18 18 20 24 25 21 22 24 26 27 33 34 32 32 33 31 21 21 18 20 20 23 24 25 26 25 25 24 24 22 21 19 16 14 13 12 11 13
14 14 16 17 17 18 19 19 19 21 26 29 26 27 29 31 33 34 33 34 20 16 17 20 20 20 22 23 26 26 26 24 22 21 21 20 19 17 15 14 12 11 12
14 14 16 15 16 16 17 17 17 18 19 21 27 27 34 37 33 32 31 24 21 21 19 20 22 21 20 23 27 27 25 26 24 22 22 21 20 19 18 15 13 10 10
14 13 15 14 16 16 18 15 16 18 19 19 20 24 32 34 33 37 29 25 25 22 18 19 19 18 21 24 26 27 25 25 25 22 22 22 22 21 20 15 13 10 9
13 13 15 15 16 17 18 16 17 17 18 19 21 23 27 23 23 25 28 29 32 32 23 16 9 12 17 22 25 25 25 24 24 23 24 24 23 23 21 16 14 11 9
12 13 14 13 16 17 16 15 19 17 16 20 23 26 25 22 22 23 24 26 27 28 26 22 20 15 13 14 16 23 24 23 24 23 23 24 23 22 21 18 16 12 9
11 13 13 13 14 15 14 18 19 17 19 24 25 24 24 24 23 22 23 26 24 28 27 25 23 22 19 16 14 12 18 25 23 23 22 23 23 22 22 21 18 15 12
11 12 14 13 13 14 16 19 19 17 21 24 24 24 25 26 25 24 24 25 24 27 28 26 23 22 21 19 17 14 13 10 19 20 22 22 23 23 23 24 21 17 13
10 11 13 12 12 15 17 20 20 19 22 23 24 25 26 26 25 25 27 28 27 30 29 27 25 23 22 20 17 14 13 12 9 12 16 21 22 23 24 27 24 20 16
9 10 12 13 12 14 18 21 22 22 23 23 24 24 25 26 26 27 27 28 32 32 30 29 27 24 21 19 15 13 12 11 11 6 10 15 17 18 21 26 26 23 19

GFSGL_925_spd_039.txt.gz
Wind_Speed
23 26 24 24 26 27 28 30 34 37 33 32 28 21 16 14 13 7 4 3 12 10 12 14 13 12 11 10 10 12 13 12 15 18 13 13 12 16 18 19 20 20 21
22 23 24 24 25 27 29 31 32 34 29 30 24 20 17 17 13 8 4 10 17 15 16 14 14 12 12 11 11 13 14 14 16 19 18 15 14 15 17 18 18 19 19
18 16 15 16 17 18 22 23 25 25 28 33 23 22 19 18 11 9 11 16 18 20 18 16 16 13 14 13 13 13 14 14 14 16 20 16 16 15 17 18 18 19 19
8 8 9 11 12 13 16 18 24 28 29 28 24 20 16 12 8 8 18 19 20 22 22 19 17 16 16 15 14 14 14 14 14 16 18 17 16 15 15 17 18 18 21
7 7 8 9 10 11 12 13 16 20 21 19 16 15 9 4 9 19 18 19 20 20 22 21 20 20 19 18 15 15 14 14 15 16 17 16 16 15 16 16 18 19 20
7 8 9 10 9 10 10 12 13 13 15 14 11 5 2 14 19 21 17 22 21 21 19 20 22 21 21 21 20 19 17 15 16 16 16 16 17 16 14 14 17 17 17
10 10 11 12 13 13 15 19 22 20 14 10 4 16 19 20 20 16 21 20 19 19 19 19 19 23 22 19 19 20 19 20 20 17 17 17 17 14 13 15 16 18 22
14 14 14 16 19 21 21 16 13 10 6 9 13 17 17 17 15 17 20 22 21 21 20 21 21 20 19 21 19 16 17 17 18 18 18 18 16 13 12 15 18 21 22
17 16 16 18 17 15 12 7 4 5 9 12 15 13 13 15 15 19 18 17 18 19 21 21 21 22 23 24 21 19 19 20 19 22 21 19 17 14 14 15 18 19 20
19 18 15 12 9 7 3 1 5 6 8 8 11 13 16 17 19 20 18 18 18 17 18 21 25 26 26 25 25 24 22 22 17 15 15 15 15 15 16 15 16 17 18
13 11 10 8 7 5 4 3 5 7 9 12 15 16 18 21 24 22 21 22 21 19 18 19 20 27 26 29 27 28 29 23 18 16 14 14 14 14 14 13 14 15 17
14 13 10 7 6 5 5 6 8 9 10 13 16 18 19 23 23 24 24 25 26 25 25 23 23 25 25 26 28 32 35 31 18 16 15 15 15 15 14 14 14 15 17
13 11 10 8 7 7 6 7 9 9 11 14 15 18 20 18 20 24 28 28 29 29 31 31 28 27 27 24 25 28 33 28 21 20 19 17 16 14 13 12 13 15 16
11 10 8 8 7 8 8 8 10 12 14 15 17 19 22 21 21 22 22 25 26 28 28 29 27 25 20 23 26 24 26 28 26 22 19 16 14 12 12 11 12 13 14
10 8 8 8 10 10 10 10 10 10 12 16 18 20 23 25 25 30 32 32 30 30 34 27 21 19 16 17 18 19 22 24 25 22 19 17 15 13 12 11 10 11 12
9 8 9 9 9 9 10 11 10 10 12 12 14 17 21 21 30 35 34 32 30 29 27 24 22 18 17 17 17 18 18 21 23 22 21 20 17 15 13 11 9 10 12
9 8 7 9 9 10 11 12 14 13 13 11 15 17 16 23 26 30 36 35 27 25 24 23 20 17 17 17 17 16 18 19 21 21 19 19 18 15 13 12 10 10 11
9 11 9 8 9 10 12 12 13 15 17 17 15 16 18 26 26 26 30 30 23 20 16 15 17 16 17 18 19 17 17 15 16 17 17 17 17 16 14 13 11 10 10
8 8 8 7 8 9 10 10 11 14 15 17 19 19 23 27 22 22 24 23 23 24 26 26 21 18 17 15 17 17 17 16 16 15 17 16 17 17 16 14 11 10 9
8 9 9 7 8 9 10 10 12 13 14 16 18 21 25 26 23 23 22 22 21 21 22 23 26 28 15 14 14 12 13 14 15 15 16 17 17 18 17 14 12 10 8
6 6 8 6 8 9 9 10 11 12 13 14 16 17 22 19 20 20 20 21 21 21 22 22 21 21 21 19 13 12 13 13 14 14 15 18 17 18 17 15 12 11 9
6 6 6 6 7 8 8 9 10 11 12 14 16 17 19 16 17 18 19 20 20 20 20 21 20 19 18 17 18 15 13 13 14 13 13 17 18 18 17 16 14 12 10
7 8 6 6 7 7 8 9 10 11 12 14 15 17 17 17 18 18 19 20 20 20 21 21 21 20 19 20 18 15 14 14 13 15 16 16 18 18 18 17 16 14 12
7 8 6 5 7 8 9 11 11 12 12 13 15 15 16 17 18 18 19 20 20 21 22 22 21 21 20 22 21 18 14 14 15 13 16 15 18 19 18 17 17 16 13
6 7 7 8 7 8 10 11 12 12 13 14 15 15 16 17 18 18 19 20 21 22 26 24 22 21 22 23 21 18 16 16 14 11 9 16 17 21 20 19 18 17 15
5 6 8 9 7 8 9 12 13 13 14 15 15 16 16 18 18 19 20 21 23 28 26 24 26 24 24 23 20 18 15 13 11 10 8 9 14 16 18 19 21 19 18

GFSGL_925_spd_042.txt.gz
Wind_Speed
19 20 17 17 17 17 19 19 20 22 25 26 26 23 22 22 19 14 12 9 8 11 12 12 12 12 13 14 14 15 16 16 16 21 18 17 15 18 20 21 22 24 24
15 16 15 13 11 13 14 14 14 17 24 21 23 23 24 18 15 17 13 9 7 13 15 16 16 15 15 16 17 17 18 18 19 21 20 20 20 17 20 21 21 22 23
11 10 10 9 9 10 13 14 16 18 19 18 19 17 13 12 15 13 10 7 17 16 18 19 20 20 19 18 18 19 18 19 19 19 21 20 20 18 20 20 20 21 21
8 7 7 7 8 8 8 9 12 12 14 17 18 16 15 13 13 8 11 20 20 19 20 22 23 23 22 20 21 20 19 20 20 20 20 20 19 18 18 20 20 19 21
8 7 6 6 6 6 6 7 8 10 12 15 15 18 15 14 12 16 17 18 19 20 21 22 23 25 25 24 23 21 19 20 19 19 20 19 19 17 17 18 19 19 20
9 10 9 9 9 9 9 9 10 12 14 18 14 14 15 15 15 19 23 22 19 22 23 22 22 24 26 29 28 26 24 21 21 20 20 20 20 18 17 18 17 18 17
13 12 11 11 11 12 12 13 14 13 13 13 13 13 14 15 21 22 24 17 20 22 22 23 23 23 22 24 24 25 27 27 27 24 22 22 20 18 17 18 17 18 20
15 14 13 13 14 13 13 12 11 10 8 8 9 11 13 13 18 18 17 18 21 23 23 23 24 25 25 24 24 25 23 24 23 23 24 23 20 18 16 17 17 20 21
17 16 16 15 14 12 10 8 5 4 4 5 6 11 14 15 13 17 16 18 21 22 22 23 23 24 25 25 25 27 26 26 26 26 27 23 23 23 22 17 17 17 18
18 17 14 12 10 8 5 3 1 2 3 4 6 9 12 14 15 17 19 19 22 24 24 24 23 24 26 26 26 26 28 28 26 25 20 23 25 22 20 18 18 19 18
15 14 12 11 10 7 5 3 2 3 4 6 8 10 11 13 16 18 21 19 21 25 27 27 26 24 26 27 27 28 30 27 24 25 21 22 19 18 19 19 19 19 18
15 13 10 9 7 5 4 4 4 5 6 8 10 12 12 13 15 17 20 24 24 24 28 29 30 29 29 30 26 26 29 30 25 23 20 23 21 19 19 18 18 18 18
13 11 10 8 6 5 5 5 5 6 7 10 11 13 14 15 17 20 21 24 26 28 28 30 33 32 35 34 31 28 25 23 26 22 24 24 21 20 17 15 15 16 18
12 10 8 7 5 5 4 4 5 7 8 10 12 13 15 16 17 18 23 27 29 31 30 29 30 33 31 31 26 23 24 25 23 25 25 23 18 15 16 15 15 15 15
10 8 7 6 5 4 5 4 5 5 6 8 10 12 14 15 15 21 22 26 29 33 34 30 29 27 25 23 21 19 19 20 21 22 22 21 18 17 17 15 15 14 15
9 7 6 5 5 4 4 2 6 6 7 5 7 10 11 13 21 23 23 26 30 31 23 22 24 25 25 25 19 13 14 15 17 18 20 19 18 19 17 15 14 15 14
9 7 5 5 4 4 4 4 5 5 7 5 7 10 10 18 24 24 25 28 23 25 20 23 23 21 21 20 15 12 13 14 16 16 17 20 19 18 17 16 15 14 14
9 9 5 4 4 4 4 4 5 6 8 9 9 11 12 18 22 21 23 23 21 20 21 22 23 24 23 28 19 14 14 14 14 15 16 17 20 19 16 15 17 15 13
6 5 5 4 4 3 3 4 5 6 8 10 12 12 14 19 17 16 18 17 19 20 21 21 22 23 24 25 31 15 16 13 13 15 15 17 19 19 17 16 16 13 11
7 6 4 3 3 3 4 5 6 7 8 9 11 13 16 19 17 17 17 17 18 19 20 21 22 22 23 22 23 24 20 11 11 13 15 16 19 19 17 17 16 13 12
5 3 3 3 3 4 4 5 6 7 8 10 11 12 14 15 16 16 17 16 17 19 20 21 22 22 22 21 20 20 19 21 12 9 10 12 16 18 17 16 16 15 12
5 3 2 2 2 3 4 5 6 7 9 11 12 13 14 14 15 16 17 17 17 18 18 20 21 21 21 21 21 20 18 17 18 15 13 10 13 16 16 17 16 14 13
4 3 1 1 3 3 4 5 6 8 10 11 13 14 14 15 16 17 18 18 18 19 19 20 21 22 20 20 20 19 19 18 17 17 17 17 12 16 17 18 18 16 15
3 2 2 2 3 4 5 6 7 8 10 12 13 14 14 15 16 17 18 18 19 19 19 21 22 22 22 23 21 20 19 18 18 20 19 18 16 16 17 17 18 18 15
1 1 2 3 4 5 6 7 8 10 11 12 13 14 15 16 17 17 17 18 19 20 22 24 21 22 23 24 25 23 22 21 22 19 17 17 17 16 18 18 18 17 17
3 3 4 4 5 5 6 8 9 10 12 13 14 15 15 16 17 17 18 18 19 23 24 22 23 24 25 24 21 21 23 22 20 17 16 15 15 14 17 18 19 18 18

GFSGL_925_spd_045.txt.gz
Wind_Speed
29 24 26 19 16 18 18 18 20 20 21 21 20 22 22 20 17 15 13 13 13 5 6 13 16 18 19 17 16 17 18 18 17 20 19 19 19 18 20 21 19 22 25
30 23 24 18 15 15 17 18 19 18 20 20 22 24 19 19 19 16 13 12 10 4 12 14 20 20 20 19 17 19 20 19 20 21 22 21 21 20 21 20 21 24 24
17 22 20 16 14 12 13 15 15 17 17 17 18 19 21 16 17 15 14 15 11 18 15 17 20 22 22 21 22 22 21 22 21 21 22 22 22 21 22 21 22 21 25
13 12 12 11 9 9 8 9 10 11 11 13 16 18 17 20 16 17 15 16 19 14 17 20 22 23 24 26 26 25 23 24 23 22 22 22 22 21 19 21 22 22 21
12 12 11 9 10 10 10 9 9 9 11 13 14 14 16 17 21 20 17 16 13 14 21 22 23 24 25 27 28 26 24 24 22 22 20 22 20 20 19 20 20 22 23
14 13 13 12 12 11 11 11 11 11 11 14 13 15 17 13 14 15 14 9 17 18 24 22 23 24 26 29 32 34 37 29 28 25 22 21 22 21 20 19 19 20 18
17 16 15 14 14 13 12 12 11 10 11 10 9 9 8 7 9 12 16 18 20 23 21 22 24 25 26 26 27 30 30 33 38 32 28 28 25 23 21 21 20 21 22
18 17 16 15 15 14 13 13 11 10 9 7 5 3 4 6 9 13 15 16 17 19 21 24 25 26 26 27 27 28 29 28 29 30 30 32 30 27 22 20 18 20 22
18 17 16 16 15 14 13 11 9 8 7 5 5 4 7 10 11 9 10 13 17 21 23 24 26 28 28 29 28 27 31 33 30 31 32 30 27 28 21 15 16 18 18
18 17 15 14 12 11 10 8 4 4 4 3 2 3 4 8 9 9 9 14 19 22 23 26 28 29 31 32 30 26 27 31 30 29 23 24 28 30 31 26 22 20 19
17 16 14 11 10 9 9 7 5 4 2 1 2 4 6 6 8 6 8 11 16 21 24 26 28 31 32 32 27 28 28 30 30 29 25 19 21 23 22 24 21 24 21
16 14 13 11 9 8 7 5 3 2 1 2 3 5 5 6 8 11 12 12 16 20 24 27 29 32 36 39 38 37 34 32 26 26 23 21 20 21 23 23 22 27 25
15 14 12 10 8 6 4 3 2 2 3 4 5 6 7 7 8 11 15 19 20 21 24 29 36 38 37 34 32 31 33 31 26 26 23 23 25 25 25 21 23 22 19
14 13 11 9 7 5 4 3 3 3 3 4 5 7 9 10 10 13 17 20 21 23 26 32 37 36 33 33 33 30 26 25 23 22 20 24 23 20 20 19 19 16 17
13 11 9 7 5 5 5 5 5 5 4 3 4 5 7 8 10 15 18 20 22 26 29 29 26 23 24 26 26 25 24 22 24 21 20 21 18 18 21 19 17 17 16
13 9 7 6 5 4 3 5 3 2 5 3 4 5 6 6 13 17 18 19 23 22 23 20 22 23 23 26 25 30 24 21 16 15 17 18 18 16 16 17 17 16 16
11 10 8 6 4 3 2 1 1 1 5 3 3 6 5 9 15 17 17 21 18 17 17 19 20 21 23 24 27 25 30 12 14 16 16 15 15 16 17 16 17 16 15
11 11 7 5 3 2 2 1 2 3 4 4 5 7 7 11 18 16 17 19 16 16 17 19 20 22 23 24 25 26 28 38 12 14 14 16 16 17 17 16 18 16 16
7 6 7 5 3 3 1 1 2 4 5 7 8 8 9 14 16 13 13 14 16 17 18 19 20 22 23 23 24 25 27 29 28 13 14 15 15 15 17 19 16 15 16
7 8 6 4 3 1 1 2 3 4 6 7 8 9 11 15 14 14 14 14 16 17 19 20 20 22 23 23 24 24 26 27 28 28 17 15 16 15 17 16 16 14 16
3 3 4 2 1 0 2 3 4 5 6 7 8 8 9 12 14 14 15 15 16 17 18 20 22 22 23 23 22 23 24 25 26 25 27 25 9 11 15 17 16 16 14
4 2 1 0 1 2 3 4 4 6 7 8 10 10 11 12 13 14 15 16 17 18 17 19 21 22 22 22 22 22 23 23 23 25 25 25 25 14 14 16 16 16 15
3 1 1 1 2 3 5 5 6 7 8 9 11 12 12 13 13 15 16 17 17 18 19 19 21 22 23 23 21 21 21 22 23 23 24 25 25 23 19 14 15 15 16
2 1 2 3 4 5 6 7 8 8 9 11 12 12 13 13 14 16 16 17 18 18 20 21 22 24 23 24 24 23 23 23 24 24 22 23 24 24 23 18 16 16 15
1 2 3 5 6 7 8 9 9 10 11 11 12 13 14 14 15 16 17 17 18 20 21 24 24 22 24 25 26 25 23 23 24 25 24 21 22 24 25 25 16 17 17
3 4 6 6 7 8 9 10 10 11 12 12 13 14 14 15 16 16 17 18 19 21 25 23 24 23 25 25 22 22 26 27 25 24 22 21 22 23 22 22 17 19 19

GFSGL_925_spd_048.txt.gz
Wind_Speed
29 29 27 30 26 20 18 16 18 20 27 26 24 22 24 25 26 25 17 16 16 14 8 1 11 19 18 17 19 19 21 19 15 20 19 18 18 16 15 16 16 18 19
30 29 29 29 22 19 19 18 18 23 23 21 17 18 22 26 25 20 19 17 19 16 13 13 16 14 18 20 20 23 23 24 24 21 24 24 25 24 21 20 20 19 20
26 27 23 25 19 19 18 17 18 18 15 14 18 21 22 22 20 14 16 21 21 17 17 15 16 17 21 22 24 23 23 26 27 27 25 24 24 22 22 23 22 21 21
22 20 24 21 18 14 14 14 14 15 16 19 16 18 20 20 19 19 23 23 22 19 16 16 19 19 23 24 25 26 28 30 29 28 28 28 26 24 23 22 19 21 24
25 23 20 16 13 11 10 10 10 11 12 14 16 18 20 17 18 22 21 21 18 15 17 19 21 28 24 26 28 29 28 29 27 24 24 23 23 22 20 20 15 14 17
24 23 23 21 18 15 16 16 16 14 15 16 16 16 16 18 18 15 13 11 13 14 17 23 26 21 24 24 25 28 31 35 31 26 27 24 25 20 20 15 13 13 8
18 19 19 19 18 16 17 16 17 16 16 13 12 12 12 9 7 9 9 13 15 18 20 20 21 20 24 27 28 28 29 30 32 40 29 29 28 32 28 22 20 18 18
20 19 18 18 18 17 17 17 15 15 13 12 10 7 7 9 7 7 8 10 11 13 16 18 21 24 24 25 29 33 33 31 28 29 34 38 38 36 29 26 21 18 20
21 20 19 19 20 19 18 17 15 14 12 13 11 6 4 3 5 4 5 5 9 12 15 17 20 23 22 24 33 31 30 32 33 33 34 34 35 32 29 27 18 12 11
21 21 20 19 19 18 17 15 14 13 10 8 7 7 6 3 8 4 2 3 6 12 18 23 25 27 27 27 29 26 27 29 29 33 32 30 28 27 29 29 26 17 14
21 20 19 19 18 16 14 13 13 11 13 10 7 6 4 3 6 2 5 7 11 16 18 19 21 24 30 35 36 39 35 34 34 32 30 29 23 22 26 28 32 29 21
21 20 18 18 16 17 15 12 11 11 10 9 8 6 6 6 3 4 5 8 13 16 18 21 24 29 37 36 34 34 34 34 28 26 26 24 24 22 27 24 23 27 28
20 19 18 16 15 14 14 11 11 11 9 9 6 5 5 5 3 7 11 14 15 16 19 22 29 31 31 35 35 35 32 30 26 24 24 26 24 27 20 21 25 22 24
19 18 17 16 14 12 12 9 11 10 8 6 4 4 4 3 6 10 15 18 18 20 22 26 26 25 23 27 26 27 26 25 26 25 25 25 21 21 22 20 20 23 19
19 16 14 14 14 13 14 12 8 8 6 5 6 5 3 2 5 11 14 17 18 20 22 23 22 19 21 23 26 26 28 29 31 29 25 22 19 17 17 17 21 17 16
18 17 15 13 11 13 12 10 7 5 5 3 3 2 1 2 8 13 14 15 18 15 18 18 18 19 20 22 24 26 27 29 29 39 15 16 17 15 15 17 21 19 16
20 16 15 12 12 11 8 7 10 5 2 1 1 3 4 7 11 14 12 14 14 14 13 16 17 19 20 20 21 24 26 28 32 29 31 22 18 14 15 16 17 16 16
19 17 16 13 11 9 7 5 3 3 1 4 4 2 3 5 12 13 11 14 12 13 14 16 17 19 20 20 21 23 26 28 29 32 32 22 16 14 12 15 18 17 17
17 16 14 11 9 8 6 4 2 1 1 3 3 3 4 7 14 10 8 9 12 13 14 15 18 19 20 22 23 24 24 25 28 29 30 29 23 12 13 14 16 16 18
15 14 11 9 8 5 4 2 1 1 3 5 5 6 7 14 18 12 11 11 12 12 13 16 18 19 20 21 22 24 24 24 27 26 27 28 30 29 11 12 15 16 17
11 9 9 7 6 4 2 1 2 3 4 5 7 8 7 10 13 13 11 12 12 13 17 17 17 19 20 22 21 24 24 24 25 26 26 26 27 27 29 18 14 16 17
9 7 5 5 3 3 1 1 2 4 5 7 8 9 11 11 11 11 12 13 15 16 16 18 20 21 21 20 24 25 24 25 24 26 28 27 28 27 26 24 23 18 18
7 5 3 2 2 1 2 1 2 5 5 7 9 11 11 10 10 12 13 15 16 16 19 20 21 19 22 25 22 22 24 24 27 27 28 27 26 27 27 25 24 27 16
6 4 2 2 1 4 3 3 5 7 7 8 9 10 10 11 12 13 14 15 17 17 20 18 19 26 21 23 24 26 26 23 25 24 26 32 29 26 25 25 26 25 14
4 3 3 4 4 5 5 7 7 8 8 8 10 10 11 13 13 13 15 16 18 20 17 23 23 20 24 25 25 24 25 24 28 25 26 27 27 27 26 26 25 24 23
4 4 4 6 7 6 7 8 8 9 9 10 10 12 13 13 14 16 16 18 17 19 24 20 22 23 23 25 25 25 27 29 31 29 28 26 26 26 24 24 26 24 22

GFSGL_925_spd_051.txt.gz
Wind_Speed
39 38 40 40 41 34 24 20 18 18 19 19 20 25 26 26 25 24 26 22 17 15 19 16 10 10 14 17 15 20 22 21 17 20 21 20 24 24 24 24 24 24 25
35 33 34 39 33 28 20 21 19 20 19 19 21 24 24 24 25 26 23 19 18 21 18 13 9 7 10 14 17 21 23 24 26 22 28 33 32 32 34 32 30 27 28
29 33 32 30 34 32 25 24 21 22 21 20 22 21 22 23 25 25 22 18 20 19 17 17 8 9 14 19 21 24 25 25 25 28 30 32 37 35 31 32 30 27 30
41 33 27 28 32 31 26 20 19 20 22 23 21 20 21 23 23 22 17 18 17 21 19 10 12 15 18 22 26 25 26 26 27 29 26 28 28 30 34 31 33 28 33
33 33 29 27 25 25 23 20 20 20 19 19 20 20 19 20 20 18 16 15 22 19 10 15 16 17 24 26 24 25 29 32 31 29 25 25 26 26 25 29 30 31 23
27 28 28 26 23 21 20 18 16 16 17 17 16 17 17 17 16 13 13 16 14 13 15 15 16 21 19 18 22 24 25 25 25 25 24 22 27 28 31 32 27 14 6
26 25 25 26 25 22 20 20 19 18 17 17 17 16 16 13 13 14 13 12 11 10 12 14 13 15 16 16 19 22 23 24 24 26 30 27 27 30 32 30 26 25 20
23 24 28 28 28 27 25 24 21 20 18 17 17 16 17 15 13 13 12 10 9 7 6 7 6 11 16 22 26 29 31 32 30 28 26 28 28 29 34 35 33 28 26
27 25 26 28 27 26 26 24 23 21 20 19 17 17 17 15 12 10 9 7 5 6 8 10 13 18 19 21 25 32 36 37 35 30 30 36 38 39 36 30 26 18 12
25 25 26 26 28 27 25 24 22 21 21 20 15 12 12 13 13 11 10 8 6 6 9 12 13 15 19 20 24 28 30 34 34 34 32 30 28 31 30 29 27 19 12
27 27 28 29 30 29 26 24 23 19 18 16 16 17 18 15 12 8 5 1 3 7 11 15 17 18 20 21 20 23 26 31 36 33 31 28 28 27 27 27 25 28 22
32 32 31 31 27 23 23 22 20 24 23 20 20 21 18 14 9 5 1 3 6 9 12 14 17 20 18 17 20 22 22 23 26 25 27 28 26 27 28 27 32 32 30
31 29 26 23 24 24 25 26 25 23 23 21 22 22 20 13 7 1 3 7 9 10 11 14 17 16 15 16 19 23 21 22 22 22 22 27 28 29 27 27 25 18 22
25 25 25 27 27 24 20 24 24 22 20 18 17 19 16 8 2 4 7 9 11 13 14 15 15 16 14 21 22 20 20 22 22 23 25 30 32 26 25 21 17 14 17
26 24 25 24 26 25 23 20 20 16 14 16 13 11 8 4 1 5 8 10 11 13 13 14 16 18 20 19 17 18 21 23 23 26 29 29 35 24 20 17 16 18 15
24 24 19 22 23 23 22 19 13 11 9 8 7 5 4 3 2 7 8 8 10 10 12 13 15 16 19 17 17 19 21 22 24 25 27 30 28 30 20 18 17 16 15
27 22 21 21 20 19 17 17 17 10 8 6 5 5 3 2 4 9 7 8 8 8 10 12 14 17 17 15 17 19 21 22 24 25 26 27 30 31 25 17 15 15 16
25 22 21 20 19 20 18 12 11 10 8 6 4 4 5 1 5 9 6 5 7 10 10 10 13 16 16 16 18 21 22 23 23 25 26 26 27 27 32 18 15 16 16
25 22 19 16 13 11 9 8 8 7 7 6 5 10 9 0 7 12 4 6 7 8 8 11 15 15 16 18 20 21 22 24 23 27 25 24 26 27 29 31 15 12 16
20 16 14 14 12 10 7 7 5 5 4 3 3 7 6 6 12 8 6 7 7 7 11 13 12 14 18 20 20 19 24 23 21 24 22 24 25 25 25 27 27 18 12
16 13 12 10 8 6 4 3 3 2 1 1 3 2 4 7 7 5 4 7 8 11 12 13 16 18 19 19 17 25 24 21 23 22 22 27 24 25 25 25 24 24 24
13 11 8 7 5 4 1 1 2 1 2 1 3 5 6 7 5 5 7 9 11 12 12 15 17 17 17 19 23 20 21 20 22 25 26 24 23 24 26 25 24 21 21
11 9 7 4 3 3 3 1 1 3 5 6 7 7 8 7 7 7 9 9 10 12 14 16 17 17 21 21 17 18 23 24 23 25 25 25 29 26 24 22 23 23 22
9 7 6 5 1 4 2 4 7 6 4 4 6 7 6 8 9 9 9 11 13 15 16 16 18 22 17 20 22 20 20 21 22 23 27 27 29 27 26 24 23 23 22
7 6 5 5 5 5 5 5 5 6 7 7 7 8 10 11 11 12 14 15 17 17 16 20 23 20 20 19 18 17 20 24 26 24 25 26 28 27 27 25 24 23 22
8 8 8 7 6 7 8 7 7 9 9 9 10 12 11 11 12 14 17 17 15 17 23 26 23 19 18 19 18 22 26 26 25 24 24 24 24 25 24 24 25 24 24

GFSGL_925_spd_054.txt.gz
Wind_Speed
35 38 42 41 40 33 36 36 33 31 30 30 31 27 26 27 29 27 25 25 22 21 17 15 16 14 11 13 11 12 15 18 14 18 21 25 22 20 26 29 33 32 32
49 51 40 38 36 30 28 28 35 34 28 31 25 24 24 27 26 24 24 22 24 23 19 20 17 13 11 9 10 14 18 20 24 20 24 26 27 31 33 32 33 38 41
44 33 34 34 33 35 29 39 36 32 28 25 22 23 23 25 23 21 22 24 23 21 20 19 15 12 9 8 11 15 20 22 23 24 23 26 30 31 31 31 33 33 34
36 30 32 34 38 39 43 37 34 34 30 27 25 25 25 23 22 21 21 21 20 19 18 15 16 9 10 12 17 21 20 20 24 28 26 25 25 30 27 27 32 35 37
33 31 28 30 34 33 35 35 34 32 27 27 25 23 21 19 19 20 21 21 19 19 16 18 11 10 11 13 18 18 18 19 21 23 21 24 23 24 24 27 29 32 35
28 27 28 25 27 28 32 37 30 25 24 24 23 21 19 19 18 20 21 19 17 18 20 14 11 10 11 11 12 8 10 13 17 18 20 20 24 25 28 29 28 25 16
24 24 26 29 32 31 31 27 24 22 22 20 19 19 19 18 18 18 15 16 16 16 13 10 8 7 8 10 13 17 20 22 21 21 23 22 25 23 26 26 23 26 25
26 25 26 28 28 28 28 26 23 22 21 21 21 22 21 19 18 18 16 15 13 10 8 7 7 5 9 14 18 21 22 23 22 22 23 29 28 29 28 29 30 30 31
26 27 28 32 32 31 29 28 24 24 23 23 23 23 22 21 18 18 17 15 11 10 7 4 5 8 12 13 16 18 21 22 19 19 22 24 25 25 25 26 24 20 21
26 29 30 30 29 29 29 28 27 24 24 24 22 19 19 20 18 17 15 14 13 9 6 5 7 8 9 11 13 16 20 21 24 24 21 24 23 25 26 25 27 23 22
28 28 27 27 28 28 27 26 27 26 25 24 23 19 19 19 17 16 14 13 10 7 4 4 5 6 8 8 8 11 15 22 25 24 23 24 25 25 27 27 25 25 23
28 27 27 26 26 27 28 27 26 26 26 24 26 23 20 19 17 15 11 7 4 2 3 3 5 6 5 4 6 12 15 19 21 22 23 22 24 28 32 28 29 25 27
29 27 27 27 26 26 28 27 26 26 29 26 27 25 21 16 13 10 5 2 2 2 2 3 4 4 3 6 10 11 14 18 19 19 20 22 25 29 35 32 26 25 22
27 26 28 26 23 21 22 23 26 28 27 25 23 22 21 14 9 5 2 0 2 3 3 4 5 4 6 8 11 11 13 15 17 17 20 22 24 27 29 31 25 22 15
26 25 22 21 22 21 19 17 21 18 22 25 21 21 19 11 5 2 1 1 3 4 4 4 5 7 9 10 8 10 15 15 16 18 19 23 24 26 28 31 27 17 18
26 24 24 25 24 25 26 23 18 13 11 11 12 10 9 8 5 3 3 3 4 3 4 5 5 8 11 8 10 12 14 16 17 17 19 22 22 23 27 29 29 19 15
29 27 27 26 24 23 20 20 19 15 13 11 8 8 7 6 4 5 4 2 2 4 4 3 7 10 11 9 10 12 13 15 18 17 19 22 21 23 24 25 25 27 14
32 30 28 24 22 20 17 15 12 10 7 5 4 4 4 1 2 5 4 2 3 3 2 3 7 8 8 9 12 15 15 19 22 18 23 22 20 24 23 23 24 24 24
31 30 29 26 22 18 15 14 12 9 7 7 10 10 6 3 3 5 2 1 1 1 2 5 7 8 11 13 15 15 15 21 20 17 22 18 25 24 21 21 23 26 26
25 20 19 17 16 15 13 11 9 7 5 5 6 11 8 3 3 2 2 1 2 3 6 7 8 11 13 15 15 15 21 20 17 18 21 21 22 23 20 22 22 23 23
21 18 16 14 13 11 10 8 7 6 4 3 3 3 2 3 3 3 2 3 5 7 8 8 10 12 14 15 16 19 17 15 15 21 20 22 22 21 22 23 21 21 21
16 15 14 13 11 9 7 6 4 3 3 3 2 1 2 3 1 2 2 3 5 6 7 10 12 13 14 16 18 16 17 20 21 18 20 21 21 22 25 23 21 20 21
16 15 13 11 9 7 7 5 4 4 2 1 1 1 2 2 3 3 3 4 7 9 11 13 14 16 17 18 16 16 18 17 18 19 21 22 24 23 24 24 21 21 20
15 14 13 10 9 8 6 6 6 6 5 5 4 4 5 6 6 5 7 9 10 12 12 13 16 19 21 19 16 14 14 15 18 21 22 24 24 25 23 24 23 22 22
15 14 12 11 10 10 9 8 8 8 7 6 6 7 8 7 8 9 11 14 14 13 14 17 20 21 19 16 16 13 13 17 20 22 21 21 23 24 24 23 23 23 22
14 14 13 13 13 12 12 11 11 10 8 8 8 8 8 8 10 13 15 13 14 16 20 22 22 19 16 17 16 14 18 21 20 19 19 20 21 23 23 23 24 23 23

GFSGL_925_spd_057.txt.gz
Wind_Speed
38 40 43 45 51 44 37 37 38 33 36 34 32 28 27 30 28 27 26 28 27 27 24 23 23 20 17 15 11 8 9 9 8 10 16 21 21 22 23 23 27 30 31
42 42 45 40 38 35 36 38 39 40 35 34 39 38 30 32 30 27 30 31 30 28 27 25 23 19 17 12 8 6 8 10 12 14 19 21 21 23 25 28 29 28 30
43 41 39 39 35 37 36 36 40 44 44 36 36 32 31 30 29 32 35 30 30 29 27 24 22 21 15 13 8 4 9 14 16 16 14 20 22 23 25 28 30 31 31
43 42 40 39 39 38 40 41 43 38 40 40 35 31 30 29 30 33 30 28 27 25 22 21 21 18 16 12 10 7 12 14 14 15 16 18 19 22 24 26 30 31 33
39 40 42 38 37 39 38 40 37 36 37 37 32 31 30 28 29 30 29 26 25 23 22 19 17 16 10 9 9 9 10 9 10 12 15 18 19 21 21 23 27 32 35
36 39 36 35 36 37 35 32 33 34 34 32 32 30 27 28 28 27 26 25 24 23 24 18 18 11 12 10 8 9 8 8 11 13 17 17 18 22 23 23 22 22 21
32 29 32 32 30 28 32 32 30 32 33 31 27 25 26 25 22 21 21 21 21 19 19 20 14 11 10 7 8 9 11 14 15 15 18 20 21 22 24 23 21 22 27
25 25 26 28 27 26 26 27 28 27 27 26 23 23 23 20 19 19 18 17 17 17 17 14 13 10 7 9 9 12 13 13 12 12 14 18 20 22 23 26 27 27 29
21 23 25 28 27 27 27 27 26 25 21 21 21 22 23 21 20 19 19 20 19 16 13 10 8 5 5 9 10 11 12 13 13 14 17 18 20 21 20 21 21 20 23
21 21 23 25 28 28 27 26 23 22 22 20 20 18 19 22 20 20 19 19 18 15 11 7 6 5 6 6 6 7 9 12 17 20 20 19 20 20 18 18 22 22 21
22 22 23 24 25 27 26 24 24 22 24 23 22 18 19 19 18 17 16 16 16 13 9 5 3 4 4 3 3 3 6 11 15 15 17 19 17 20 19 19 20 21 25
23 23 22 21 20 20 21 22 23 26 27 25 24 22 20 19 18 15 13 11 9 7 5 3 2 3 2 1 2 5 7 11 13 15 15 13 17 19 24 25 27 26 27
22 20 19 18 18 20 23 24 24 26 27 22 22 22 20 17 15 13 10 6 4 2 1 1 0 1 2 2 3 5 9 13 15 17 14 16 19 25 25 29 28 28 25
25 23 23 23 22 20 21 22 24 24 23 22 21 21 21 16 12 9 6 4 2 2 2 2 2 3 2 3 6 8 11 13 14 14 16 19 24 24 22 24 28 29 29
24 24 24 25 25 23 18 17 19 19 24 28 25 26 24 16 10 8 6 4 3 3 4 5 4 1 3 4 6 8 11 12 13 16 17 20 22 23 21 23 23 25 20
27 25 26 27 25 27 30 29 19 13 13 15 17 19 14 14 11 7 7 6 5 4 5 4 2 2 3 2 5 6 8 10 11 14 15 16 20 19 22 25 22 21 22
30 28 26 25 23 23 21 23 25 23 20 17 15 13 13 13 9 8 6 6 3 1 3 3 2 1 2 2 4 5 8 8 14 17 14 18 20 17 24 22 21 21 24
25 23 25 21 22 23 23 21 20 18 16 15 10 9 10 8 6 4 4 4 2 1 3 4 1 2 2 4 5 8 9 12 15 15 13 17 16 21 21 19 19 20 23
28 27 27 27 24 21 18 15 14 13 12 14 13 9 6 4 3 3 0 2 4 4 3 3 4 4 6 8 10 11 11 15 15 13 13 18 17 21 22 19 20 21 23
30 27 23 20 18 16 14 14 12 10 9 7 8 9 6 2 2 2 1 1 2 3 3 3 5 6 8 10 11 12 16 15 14 13 18 18 17 18 19 19 21 21 21
24 23 21 19 18 15 13 13 11 10 9 8 6 4 2 1 1 1 2 3 2 2 3 3 6 8 10 12 14 15 16 15 15 18 17 17 18 21 20 21 23 21 21
25 23 22 20 17 16 14 12 11 9 8 7 5 3 2 2 1 1 1 1 2 2 5 7 9 10 12 14 16 17 17 17 17 14 16 18 20 20 22 23 22 23 21
24 22 21 18 16 14 14 12 11 9 7 6 6 6 6 5 4 3 3 4 6 8 10 11 12 14 15 17 18 16 16 16 14 14 17 20 20 23 22 22 21 21 20
22 20 19 17 16 15 14 14 13 11 10 8 7 6 6 6 6 6 7 9 11 11 12 13 15 17 19 20 17 14 14 13 13 15 18 23 22 22 22 22 22 22 23
19 18 17 16 15 14 14 13 12 10 9 8 7 7 6 5 5 8 11 12 12 14 15 17 19 21 20 18 16 15 13 13 16 18 18 18 20 21 22 22 23 23 22
18 17 17 16 15 14 13 12 11 10 9 8 7 6 4 5 9 11 12 13 16 18 19 19 19 18 18 18 16 14 15 17 17 17 17 17 18 20 21 22 22 23 22

GFSGL_925_spd_060.txt.gz
Wind_Speed
38 38 38 41 42 40 41 41 41 41 41 40 38 35 34 32 29 30 32 32 27 25 25 24 24 24 23 21 18 15 14 13 8 5 10 14 16 17 18 16 17 19 21
40 38 38 35 38 46 46 43 37 38 37 41 41 42 37 37 33 30 29 29 26 24 26 26 26 25 25 21 18 17 13 12 9 8 7 14 16 17 17 18 19 20 22
37 37 37 42 42 40 39 36 36 37 37 39 41 37 36 35 33 35 31 31 28 29 31 29 29 28 24 21 18 15 11 9 6 5 6 10 14 16 16 19 21 24 25
34 35 35 39 41 40 37 41 41 39 38 43 36 34 37 36 32 31 29 30 29 27 26 28 28 26 26 23 20 14 10 5 4 5 7 9 11 16 20 20 24 26 30
33 34 39 39 37 34 34 37 40 40 42 42 36 35 37 34 32 30 29 30 27 25 26 24 22 21 19 20 19 14 9 6 4 4 8 11 16 16 17 17 23 25 26
33 37 38 33 34 35 34 34 35 36 37 34 37 37 39 35 33 30 28 28 26 26 24 21 18 19 19 17 14 10 7 5 4 6 10 12 16 16 18 21 23 16 8
33 33 32 32 32 33 31 31 33 33 33 36 35 36 33 30 27 25 25 24 24 22 22 22 22 19 17 15 11 7 5 6 8 8 10 12 13 14 18 22 20 18 19
28 28 29 30 29 27 29 30 29 30 31 33 31 29 27 26 22 21 22 20 21 20 21 25 24 19 15 12 8 5 5 5 6 6 8 11 13 16 17 18 20 22 24
26 28 29 29 26 27 25 27 25 24 23 23 23 24 23 18 19 22 21 21 21 20 21 20 18 15 10 7 6 4 4 4 4 5 7 9 11 13 14 16 14 16 21
22 22 22 22 24 22 21 20 21 21 20 19 18 15 16 22 20 19 21 24 25 22 18 15 12 9 5 4 4 3 2 4 8 11 11 11 12 11 11 11 14 15 17
17 17 16 18 19 20 20 19 21 22 22 21 22 19 21 22 20 19 19 22 24 21 17 13 9 5 3 3 2 1 1 5 9 11 13 13 13 14 14 14 13 14 18
19 17 17 16 16 18 20 21 23 25 28 27 27 25 22 21 19 18 17 17 17 17 15 11 7 5 6 6 4 2 2 5 9 11 12 11 12 13 17 18 17 18 20
19 18 17 16 15 16 20 22 22 24 26 23 22 22 21 20 19 17 16 16 14 12 11 8 8 8 8 6 2 1 4 6 9 10 9 10 12 16 17 17 17 20 24
21 19 18 20 21 18 18 18 22 21 21 21 20 20 19 18 18 17 15 13 12 10 10 8 7 7 5 3 1 3 5 7 7 7 10 12 14 14 16 14 19 21 23
20 20 20 21 23 24 21 16 17 15 17 25 22 24 24 17 13 13 11 10 9 8 9 8 8 5 3 2 1 3 6 7 7 9 11 13 13 15 15 15 18 18 16
21 20 20 21 20 22 25 27 17 10 9 13 18 20 17 18 14 11 8 7 8 8 7 7 5 3 2 1 2 4 7 7 7 10 13 12 13 15 15 17 15 16 18
24 23 23 23 20 19 18 22 27 30 25 19 18 16 15 15 13 12 12 11 8 5 6 5 4 2 2 2 3 4 6 7 12 12 14 12 13 15 15 17 16 16 18
23 23 23 20 22 24 23 22 20 18 19 21 16 16 14 14 13 10 9 8 4 2 4 6 5 4 3 3 4 6 8 10 13 14 15 14 16 16 15 15 15 16 18
25 25 26 26 24 24 21 19 18 18 18 19 18 15 11 11 8 7 4 3 3 5 5 4 4 4 4 5 7 9 10 13 15 16 15 14 17 15 16 17 16 17 21
31 30 28 26 24 23 22 20 18 17 15 13 13 12 7 4 5 4 3 1 3 3 2 2 3 4 5 7 8 10 13 15 15 15 15 17 15 15 17 18 17 17 17
29 30 27 26 25 23 22 20 19 18 16 16 13 9 7 6 5 4 3 3 2 1 0 1 4 6 7 9 11 13 14 16 17 17 17 15 14 17 17 16 18 19 17
29 27 26 24 23 22 21 19 18 17 15 15 12 10 8 9 8 7 6 5 4 3 5 7 8 9 10 12 14 16 18 19 18 16 15 14 16 18 18 19 19 18 17
27 26 24 22 21 20 21 19 17 16 15 14 12 11 10 9 7 6 5 5 7 8 9 10 12 14 15 16 17 19 20 19 17 15 15 17 18 20 21 19 18 18 17
24 24 22 21 20 20 19 18 17 15 14 13 11 9 8 6 6 5 6 8 8 9 11 14 15 17 19 20 20 18 17 17 14 14 17 20 23 21 19 19 19 19 19
22 21 21 20 19 19 19 18 16 14 12 10 8 6 4 3 5 7 8 9 11 14 16 17 18 19 19 20 19 18 16 14 15 17 19 20 20 21 20 20 20 19 19
20 20 19 19 19 18 17 15 13 11 10 9 6 4 5 7 8 10 12 14 16 17 18 17 18 19 21 21 19 17 16 17 18 18 16 18 19 19 18 19 20 20 19

GFSGL_925_spd_063.txt.gz
Wind_Speed
35 35 35 37 38 37 37 39 41 41 39 38 39 38 37 35 32 29 29 28 30 27 29 29 29 30 29 27 26 20 17 20 11 5 13 14 16 15 13 11 11 12 12
34 35 38 38 37 36 42 44 38 38 35 39 36 32 37 39 37 33 33 35 36 31 30 27 29 30 27 27 27 24 20 20 13 11 12 14 14 10 10 10 8 9 12
35 37 35 36 36 41 43 39 36 32 33 31 32 35 36 40 38 38 40 36 35 32 31 29 33 31 26 29 28 24 20 17 12 9 9 8 11 6 6 7 10 12 15
33 34 34 37 40 39 38 35 36 36 35 35 36 37 36 38 37 40 38 34 34 32 34 32 32 31 31 29 28 25 17 17 14 9 9 8 8 7 7 9 11 10 15
32 34 39 35 34 34 33 34 35 36 38 37 35 33 32 33 35 35 36 35 34 33 32 29 29 29 30 28 29 25 22 19 14 10 7 5 7 8 8 7 11 13 15
32 36 32 30 31 34 32 32 31 33 34 32 34 33 31 35 37 39 37 35 34 33 31 25 24 21 21 22 22 20 19 15 13 7 7 6 8 9 7 9 11 11 7
32 31 28 28 29 30 29 28 30 32 30 33 33 33 34 36 39 36 35 34 32 30 28 27 25 24 24 23 21 20 15 12 8 9 9 6 7 6 7 10 11 12 15
29 29 28 28 28 26 26 28 28 27 29 29 31 35 35 37 36 30 29 28 24 23 25 27 29 28 25 24 22 17 11 6 7 7 7 5 6 7 8 11 14 16 16
26 26 24 24 24 22 22 22 22 25 27 30 29 28 28 27 25 24 30 24 23 23 24 26 27 26 23 20 17 13 9 7 7 6 6 6 8 10 10 9 11 12 13
23 21 19 19 19 20 21 21 22 22 22 18 17 18 19 19 20 28 26 27 28 26 22 21 22 21 18 14 11 10 11 9 6 3 3 4 6 5 7 6 8 11 13
13 15 15 15 16 17 19 18 19 18 17 16 16 14 16 21 25 22 23 28 29 28 27 22 18 14 11 10 10 9 8 8 4 2 2 3 3 4 6 6 9 10 14
17 19 19 19 18 16 17 16 16 18 20 21 23 23 21 22 19 17 18 19 23 25 23 20 16 14 13 13 10 9 7 4 1 1 3 2 4 5 7 10 12 13 16
20 18 20 18 15 16 19 19 18 19 21 18 19 20 22 22 22 18 18 20 18 21 20 18 18 17 15 11 8 5 3 0 1 2 2 3 5 8 11 12 13 14 18
21 20 20 22 19 17 17 17 21 23 22 21 19 17 19 22 21 24 23 21 20 21 21 20 16 12 9 9 6 2 1 0 1 2 4 6 7 8 10 11 14 15 18
17 19 23 23 24 24 22 17 16 14 17 24 22 23 22 17 17 21 22 21 18 16 16 14 11 9 7 5 3 2 1 1 2 4 6 8 9 10 11 11 12 15 17
23 13 15 20 22 24 26 29 21 13 10 14 20 22 21 24 21 19 18 17 16 15 10 9 7 5 4 4 3 2 2 3 4 6 8 9 11 11 13 13 13 14 17
17 16 18 17 18 19 20 24 28 31 32 27 24 25 25 23 21 20 19 17 12 7 7 6 6 5 4 3 2 2 2 3 5 7 9 11 11 12 13 14 14 15 17
25 23 23 23 23 22 21 21 22 23 22 24 24 24 22 20 18 16 15 11 8 7 5 4 3 2 2 1 1 3 5 7 8 10 11 12 12 12 14 14 14 16 17
27 26 27 28 26 26 23 21 21 23 23 21 20 21 19 18 16 12 9 7 6 5 4 3 2 1 1 2 4 5 7 8 10 12 12 12 12 13 14 14 16 17 18
33 34 31 29 26 23 22 20 17 17 17 16 14 11 9 10 10 10 9 8 7 5 4 3 3 2 3 4 6 7 9 11 12 13 13 13 14 13 14 15 16 17 18
29 30 29 28 23 22 20 19 17 17 17 16 15 13 12 11 10 9 9 8 7 6 5 4 4 4 5 7 9 11 12 14 14 15 15 14 13 14 14 15 16 16 17
26 24 24 23 20 21 20 18 17 17 16 15 13 14 14 13 11 10 9 8 6 6 5 5 5 6 7 9 11 12 14 15 15 14 14 13 13 13 14 15 16 16 16
22 22 22 20 20 21 20 17 17 16 15 13 12 11 11 10 9 8 7 6 6 6 6 7 7 9 9 10 11 12 14 15 14 14 14 13 14 14 15 16 15 15 15
20 19 19 19 17 17 17 16 16 15 13 12 10 10 9 8 7 7 6 6 6 7 10 12 12 13 14 14 12 13 13 13 13 13 13 14 16 16 16 16 16 16 17
19 19 18 17 16 15 15 14 13 12 11 10 9 8 7 6 6 6 6 8 11 12 12 14 13 12 13 17 18 17 15 14 12 14 14 15 17 17 17 16 16 16 16
18 17 17 15 15 13 13 11 11 10 10 9 8 7 6 5 6 7 9 9 10 12 12 11 12 15 18 18 16 16 17 17 17 17 16 15 15 15 15 15 15 16 17

GFSGL_925_spd_066.txt.gz
Wind_Speed
32 33 35 38 39 40 37 38 38 36 38 37 37 36 36 35 35 33 32 31 29 25 23 25 27 27 28 27 28 23 23 21 15 13 12 13 17 17 13 11 11 12 14
32 33 34 33 35 38 40 40 39 41 39 40 40 39 39 38 36 35 35 32 28 25 26 26 31 28 33 30 30 31 29 26 21 18 17 15 17 11 11 11 12 13 14
32 33 33 35 36 38 39 38 38 38 39 39 40 40 40 40 39 38 36 35 37 35 32 30 36 35 35 34 31 30 26 22 23 15 13 14 12 13 11 11 13 14 15
34 34 35 36 38 37 36 36 37 38 38 39 40 39 38 38 38 37 36 35 35 42 41 40 41 38 39 36 33 30 27 29 22 19 15 13 10 9 9 10 14 15 15
34 35 39 37 35 34 34 35 35 36 38 39 38 38 38 37 36 35 33 30 28 31 34 38 40 41 42 37 35 33 31 27 24 17 10 9 9 10 12 11 13 13 15
35 39 35 34 34 36 35 34 33 34 35 35 37 36 35 34 36 36 33 27 28 31 33 36 36 37 35 33 32 33 36 33 24 17 13 11 14 13 11 11 11 12 12
33 32 32 31 32 33 32 32 34 34 31 33 34 33 34 33 34 37 37 37 37 36 36 34 33 31 29 30 31 29 30 25 23 22 19 12 10 10 9 10 12 12 14
30 29 29 30 30 28 29 30 30 29 30 30 30 30 29 30 34 38 39 40 34 34 34 33 32 31 33 34 33 30 24 20 17 12 11 10 8 6 7 9 10 12 15
29 31 29 28 27 27 28 26 25 23 23 25 25 27 31 32 34 34 33 30 28 24 24 26 27 29 28 29 26 20 16 13 10 9 9 11 10 10 10 6 9 11 14
24 24 24 25 26 25 25 23 18 19 19 23 24 22 25 26 25 21 24 27 24 22 18 18 21 27 27 24 22 18 18 11 7 6 3 2 3 4 8 8 8 12 13
17 16 17 20 21 19 17 15 20 22 19 15 13 10 9 10 13 21 27 24 25 24 24 25 25 23 21 20 16 12 11 12 10 5 3 2 3 4 6 7 9 12 14
7 11 13 13 16 18 20 20 17 17 18 18 15 15 12 12 15 15 15 18 24 29 28 26 23 23 18 17 15 13 13 9 6 4 3 3 5 6 8 9 11 14 16
11 13 16 17 16 16 19 19 19 17 16 17 18 19 20 21 21 18 20 23 23 28 25 24 23 21 19 16 15 13 9 6 4 2 2 5 6 8 10 12 14 15 16
16 16 16 20 19 15 14 13 15 17 16 16 17 19 21 22 23 23 25 24 26 29 29 25 20 15 12 12 9 7 5 3 2 2 4 6 8 9 11 12 14 15 17
10 13 19 22 22 23 22 15 14 10 14 18 18 20 21 19 18 23 25 26 26 25 23 16 11 10 10 8 6 4 3 2 1 2 5 7 9 11 12 12 14 15 17
17 15 14 17 21 22 25 31 28 20 15 20 22 23 24 26 25 23 22 23 22 18 12 10 8 6 5 4 3 3 1 1 2 4 7 9 11 12 13 13 15 15 17
20 17 15 16 16 20 21 30 28 35 37 35 31 29 26 26 26 25 23 19 14 10 9 7 6 5 4 3 2 1 2 2 3 6 8 10 12 13 13 14 15 16 17
25 22 23 19 22 24 24 24 22 24 27 28 29 28 25 24 22 20 16 14 11 11 9 7 6 5 4 3 2 3 5 6 7 8 10 11 13 14 15 15 16 16 17
25 23 25 28 27 27 25 25 23 25 25 24 23 24 22 20 17 15 13 11 10 9 8 8 6 5 4 4 4 5 6 8 9 11 12 13 13 14 16 16 17 17 17
28 27 24 23 24 23 19 19 19 19 19 17 15 13 10 11 12 12 12 11 11 10 8 8 7 6 5 5 6 8 10 11 13 13 14 15 15 15 16 16 16 17 18
21 22 21 23 23 19 18 18 18 18 19 18 17 16 16 14 13 12 11 11 10 9 7 6 5 6 7 8 10 11 12 13 14 14 15 15 14 15 15 16 16 17 18
20 19 19 20 21 20 19 18 18 19 18 16 16 16 14 13 11 10 9 9 8 7 7 6 6 7 8 9 10 11 12 13 13 13 14 14 14 14 15 15 16 17 17
19 19 20 19 19 18 18 18 17 16 15 14 12 12 11 10 9 8 7 7 6 6 6 6 6 7 8 8 9 10 11 12 12 13 14 14 14 14 14 15 16 17 17
18 18 18 17 16 15 16 16 15 14 12 11 10 10 9 8 7 6 6 5 6 6 7 7 8 8 8 9 9 10 10 11 12 13 13 14 14 14 14 15 16 17 17
16 16 16 15 14 13 14 13 12 12 10 9 8 8 7 7 5 5 5 6 6 7 8 9 8 8 9 12 12 12 12 12 12 13 13 14 15 15 16 16 16 17 17
16 15 14 13 14 13 12 11 11 10 9 8 7 7 6 5 5 5 6 6 7 8 9 9 10 11 13 13 12 12 14 16 14 14 13 13 14 14 14 15 16 17 17

GFSGL_925_spd_069.txt.gz
Wind_Speed
29 30 33 34 35 34 33 34 34 33 34 36 38 40 41 41 39 36 36 35 34 34 32 31 30 26 25 27 26 27 28 23 12 15 19 25 25 25 23 23 20 19 20
29 30 31 33 34 36 37 35 34 35 35 38 37 39 40 41 40 40 38 36 36 36 33 31 30 28 29 29 31 34 32 35 26 23 26 25 25 28 25 22 19 19 17
30 31 31 32 34 36 36 36 34 35 34 38 38 40 38 39 39 40 39 39 38 37 36 34 32 31 31 31 33 33 34 34 32 25 17 19 15 22 22 18 19 19 16
32 33 34 34 37 36 35 35 37 36 37 39 40 40 40 40 39 39 39 39 39 38 39 38 37 38 39 39 36 38 36 30 28 28 19 21 23 22 24 20 16 17 16
32 34 36 35 34 34 34 36 37 38 38 37 38 40 42 41 41 41 40 41 41 40 38 35 36 39 42 41 36 35 33 31 25 25 18 14 17 16 21 15 15 15 14
33 36 33 32 34 35 35 35 35 37 38 39 41 39 40 41 41 44 44 37 38 37 35 35 35 37 43 42 42 41 42 37 31 27 24 21 18 17 20 15 13 8 9
32 34 34 33 34 35 34 34 37 38 35 39 38 38 39 39 42 44 43 43 35 33 35 33 35 41 40 39 38 32 29 30 27 23 17 11 11 14 13 11 10 8 10
31 30 31 32 34 33 34 36 35 35 37 36 36 36 35 36 37 39 40 40 35 37 38 35 37 40 34 30 26 24 19 16 12 15 18 17 10 7 8 8 6 8 9
26 29 30 31 32 32 34 36 35 33 32 33 31 30 32 31 30 32 31 35 34 31 29 27 28 26 23 27 28 27 21 16 13 11 15 10 12 10 10 9 6 7 9
20 24 26 27 29 29 30 29 28 28 27 26 25 24 23 23 29 31 30 28 25 18 14 12 13 15 19 24 24 27 25 18 15 10 8 7 5 6 8 10 5 8 9
16 14 15 19 24 26 24 23 24 20 18 15 15 12 13 12 11 12 16 19 19 16 16 18 19 23 23 22 22 20 19 16 12 12 9 3 3 4 3 4 6 8 10
12 9 8 7 5 4 7 11 10 12 15 14 13 12 9 8 9 7 10 11 16 22 25 26 24 24 23 21 21 20 17 16 11 6 4 2 1 2 5 6 7 9 12
17 15 10 8 9 7 9 10 10 9 14 16 17 19 15 18 22 14 13 18 21 29 30 28 25 25 25 25 20 18 13 10 6 4 2 2 3 5 7 9 10 12 15
24 24 22 22 19 18 15 11 15 12 14 15 14 17 16 16 23 25 25 30 35 36 33 27 22 21 19 18 15 11 9 6 5 3 1 2 4 6 9 9 11 14 15
23 23 22 22 23 27 31 21 20 12 12 18 17 19 17 16 18 26 25 24 28 29 27 21 17 14 14 12 10 8 6 5 4 3 4 6 7 8 10 10 11 13 16
18 21 22 20 21 22 24 32 36 29 23 23 22 28 29 26 28 30 30 27 23 19 16 14 13 11 10 9 7 6 5 5 4 4 5 7 9 10 12 12 13 15 17
21 16 17 20 25 22 21 22 27 37 40 37 34 33 33 31 30 28 27 24 17 17 16 14 14 13 12 10 9 7 6 4 4 3 6 8 10 12 13 15 15 15 17
24 23 19 24 21 24 24 22 21 24 24 27 32 31 28 27 26 23 21 19 19 19 17 15 14 12 10 9 8 7 7 7 6 7 9 10 11 13 15 16 16 16 18
24 24 24 24 24 25 23 23 22 22 23 22 21 24 23 23 24 23 23 21 18 16 14 14 12 11 10 8 7 5 5 5 7 8 10 11 12 14 16 17 17 17 18
27 27 25 24 24 22 21 20 19 20 21 19 17 12 14 18 21 22 22 19 17 15 14 12 10 9 8 7 6 7 7 8 10 11 12 13 13 14 15 16 17 17 18
20 23 23 23 21 20 20 19 19 19 19 19 19 20 18 16 16 15 16 16 14 12 11 9 8 7 7 7 7 8 8 9 10 10 11 12 12 14 14 15 15 16 17
18 20 19 19 18 18 18 18 18 17 17 15 14 16 15 14 12 12 11 11 11 10 8 7 7 6 7 7 7 8 8 9 10 10 11 12 13 13 14 15 15 16 17
18 18 18 18 18 17 18 17 16 16 15 13 12 12 11 10 10 10 9 9 9 8 8 7 6 6 6 6 6 7 8 9 9 10 11 12 13 13 13 14 15 16 17
16 16 16 16 15 15 14 13 13 13 12 11 10 10 9 8 8 8 8 8 7 6 6 7 6 6 6 6 6 7 8 8 9 10 11 12 12 12 13 14 15 16 18
15 15 15 14 13 12 12 12 11 11 11 10 9 9 8 7 6 7 7 6 6 6 6 6 5 6 7 9 10 9 10 11 11 12 11 10 12 14 13 14 15 16 17
16 15 13 12 12 12 11 10 10 10 9 9 7 6 6 6 6 6 6 5 6 6 6 6 7 8 10 9 9 9 13 13 12 11 11 10 11 11 12 13 14 16 18

GFSGL_925_spd_072.txt.gz
Wind_Speed
35 32 33 32 30 31 32 33 37 30 32 34 37 39 39 40 39 37 36 35 37 36 35 36 35 33 34 34 34 32 30 28 20 25 30 32 33 32 32 37 34 34 34
31 32 32 33 34 34 34 34 34 36 34 34 34 36 39 39 38 40 39 37 38 38 39 38 37 36 35 34 32 34 30 32 30 27 26 33 34 33 37 32 30 31 32
26 30 32 34 35 36 37 36 35 36 38 38 39 40 39 39 38 41 42 42 41 41 40 39 39 37 37 35 34 32 34 34 32 31 29 27 32 37 36 35 40 33 29
27 29 31 33 37 37 35 36 37 36 37 38 39 41 40 42 42 42 42 43 43 43 43 43 42 41 39 37 34 35 33 30 29 30 30 24 27 27 35 33 29 34 34
27 29 31 32 32 33 35 37 37 40 38 39 38 41 41 42 42 43 43 43 41 42 44 44 44 45 44 42 38 34 30 30 32 29 27 19 21 19 30 27 24 20 20
30 31 27 29 31 34 35 36 38 39 40 39 41 42 40 43 45 48 47 41 40 39 40 41 43 43 44 45 43 44 43 38 36 31 32 22 23 16 20 20 13 7 3
30 29 29 29 31 33 33 33 37 39 38 42 43 40 42 44 45 47 47 47 40 37 38 37 38 40 42 41 43 44 47 44 43 33 22 16 14 15 16 14 11 16 10
27 27 29 29 29 28 30 34 35 34 36 37 38 39 37 40 40 42 45 44 44 40 40 39 37 32 33 35 35 29 18 10 10 18 19 15 16 16 19 17 13 9 4
11 17 25 28 29 30 31 35 34 30 31 33 32 33 34 36 35 38 37 39 39 34 34 34 33 31 29 32 28 17 18 19 18 18 19 18 16 17 14 13 8 3 2
28 26 30 19 28 28 31 32 31 31 32 29 28 27 27 28 32 34 34 34 29 23 18 15 10 10 11 14 16 23 25 21 20 21 21 18 16 11 8 7 9 9 2
22 23 27 27 24 15 21 26 29 28 27 19 17 11 9 9 11 13 14 19 21 16 12 12 12 12 16 18 21 25 27 22 22 21 19 15 10 5 5 2 2 4 3
19 24 26 27 27 24 13 9 8 15 18 17 16 11 6 4 1 3 7 11 16 19 25 27 26 23 22 23 26 28 26 22 21 17 18 12 10 7 6 4 4 4 4
22 25 26 27 28 27 28 18 11 7 9 14 16 17 17 16 15 10 16 19 25 31 27 33 36 35 33 29 27 24 21 19 18 16 15 10 8 5 2 4 5 5 8
16 21 23 30 33 38 33 29 21 14 13 15 13 15 19 22 24 19 26 38 38 35 29 31 29 32 30 24 20 20 20 17 16 16 12 9 6 4 4 5 5 6 8
15 16 20 24 28 31 39 40 30 24 13 23 22 22 16 22 19 22 27 30 34 32 30 27 23 20 25 22 20 20 18 17 17 12 10 9 8 7 7 8 9 10 11
13 17 18 19 21 24 30 37 43 38 34 38 38 38 35 31 33 31 33 29 27 26 21 19 19 18 16 18 18 18 17 14 12 10 10 10 11 11 11 12 12 12 12
16 16 20 21 21 21 22 28 28 32 38 41 38 39 34 29 30 30 30 28 25 26 25 23 21 21 20 19 17 17 16 13 11 13 12 11 10 10 11 11 13 13 13
22 25 24 23 23 23 22 20 20 19 23 28 32 35 32 30 26 25 26 27 28 27 24 23 21 20 20 19 17 15 13 11 11 11 9 8 9 10 12 12 13 15 15
23 24 25 26 27 26 24 22 22 21 20 19 21 27 26 28 28 26 28 28 23 22 21 22 21 20 18 15 12 10 10 10 10 10 11 11 12 11 12 13 14 15 16
25 27 24 23 22 23 21 20 20 20 23 23 20 20 21 24 25 26 26 25 23 20 18 17 16 14 14 14 13 11 12 12 12 11 10 10 10 10 12 12 13 14 14
22 24 24 23 23 22 21 20 20 20 19 21 23 24 21 22 20 20 20 21 20 19 16 16 15 13 13 12 11 10 9 9 9 8 10 10 11 12 12 13 13 14 15
22 21 22 22 22 21 20 19 19 19 18 18 18 20 19 19 18 18 19 17 15 13 11 12 13 12 9 9 9 8 8 8 8 8 8 9 10 12 13 14 14 15 16
20 20 19 18 19 20 21 19 17 17 17 17 16 17 17 16 17 16 14 15 13 11 9 9 8 8 6 6 6 5 7 7 6 7 8 10 11 12 13 13 14 14 15
20 19 17 18 19 18 17 16 17 17 17 17 15 15 14 13 13 13 11 9 8 9 7 7 8 8 6 4 5 3 6 9 9 7 8 9 9 10 12 13 13 15 17
18 17 17 17 16 16 15 15 16 15 15 14 13 12 12 11 10 9 8 7 5 6 8 6 5 5 6 9 7 6 8 11 15 13 6 6 9 10 10 13 15 16 15
16 17 18 17 17 16 15 15 14 13 12 11 11 11 10 10 7 9 7 6 7 7 5 5 6 7 8 6 6 10 15 14 9 9 9 8 8 9 10 15 15 15 17

GFSGL_925_spd_075.txt.gz
Wind_Speed
33 29 28 29 32 32 31 35 37 37 38 36 39 38 38 40 39 42 39 40 40 40 40 39 38 37 35 38 41 39 35 32 23 33 34 39 36 38 38 36 38 43 43
34 34 35 33 30 32 31 35 38 36 38 40 41 41 40 40 41 44 42 38 39 39 40 39 42 41 41 41 40 38 36 37 32 29 34 32 39 40 40 40 42 44 44
35 34 34 35 36 33 32 33 37 40 38 40 40 41 42 42 42 43 43 41 41 42 41 40 41 40 42 40 40 37 37 35 33 32 34 30 33 36 38 40 41 42 44
31 33 33 35 35 37 35 34 36 37 39 39 40 39 42 43 43 43 43 44 45 45 43 43 45 42 43 41 40 39 37 33 34 31 32 32 30 32 36 28 28 38 37
32 32 34 34 35 35 37 35 34 35 38 39 38 40 40 41 41 43 43 43 42 43 42 44 45 46 47 47 40 38 35 34 33 30 29 29 22 20 23 30 30 26 24
32 32 30 32 35 36 35 35 37 38 37 36 38 39 39 42 44 46 44 39 40 41 42 43 44 46 49 52 51 49 45 40 37 33 32 29 30 30 26 25 19 10 4
26 29 31 34 35 35 36 37 38 37 36 40 39 36 38 40 43 45 46 47 39 41 41 39 38 42 46 48 48 48 50 46 44 39 31 29 23 26 29 18 17 9 3
24 13 9 14 28 31 34 36 36 35 37 38 38 39 38 40 38 40 42 46 47 43 41 43 44 43 44 43 41 36 34 33 34 33 30 20 13 14 17 18 17 15 11
23 21 23 19 18 21 28 33 37 34 34 36 33 34 39 42 39 42 41 45 46 44 41 42 43 42 40 35 34 29 19 13 11 12 15 17 16 14 15 16 17 15 4
22 20 18 20 23 13 9 13 23 30 32 30 29 32 35 36 36 37 39 40 38 38 35 31 29 31 28 28 33 31 26 24 27 29 29 26 24 20 19 15 11 13 5
20 15 17 21 18 20 15 13 17 9 21 23 20 12 11 10 15 21 28 32 36 29 20 12 8 9 15 19 21 24 28 27 24 24 23 21 19 19 16 12 8 7 4
21 20 21 21 19 20 20 23 21 20 14 14 10 12 10 11 10 6 5 11 13 16 20 22 23 23 22 22 26 31 27 30 27 25 24 19 20 18 12 12 8 6 4
22 22 22 22 23 25 25 24 26 25 22 21 20 20 21 21 26 25 26 29 30 37 35 36 38 36 34 38 31 31 28 27 24 22 19 19 14 12 5 6 3 5 5
20 21 23 24 29 30 28 27 24 22 21 20 19 19 20 21 21 22 25 33 36 38 39 38 39 35 33 34 33 28 26 25 25 22 20 16 13 12 12 11 9 8 8
17 18 19 20 23 30 38 31 28 28 19 26 25 25 21 23 21 21 26 32 35 35 32 31 26 25 22 27 28 26 24 23 23 18 16 14 13 12 10 9 9 9 7
17 18 19 17 18 21 26 34 42 40 39 36 34 35 33 31 29 24 21 24 25 24 26 25 21 20 21 22 21 21 21 22 20 16 15 13 13 12 10 9 10 10 10
20 19 18 18 17 18 19 21 24 32 39 39 34 32 32 29 27 27 24 26 31 32 25 22 22 21 22 21 20 19 21 19 15 14 13 13 12 11 12 12 13 14 13
25 26 22 20 20 21 20 20 20 21 22 26 33 33 29 28 26 23 23 27 30 29 24 21 21 21 20 19 17 16 17 17 17 15 15 14 14 14 14 15 15 16 13
23 24 24 25 25 24 23 23 22 20 21 21 22 27 26 26 28 28 29 28 22 21 21 23 21 22 20 19 18 18 18 17 17 15 15 14 13 13 13 13 13 13 14
26 27 25 23 23 23 23 21 21 21 21 21 20 19 21 24 25 25 25 25 23 21 20 20 19 18 17 16 15 14 14 15 14 13 12 11 11 10 11 12 12 12 12
23 24 23 22 21 20 20 19 19 20 20 20 21 21 20 22 21 22 23 22 21 20 19 16 16 15 14 14 13 13 13 12 11 10 8 8 7 8 9 9 10 11 14
20 20 21 21 22 21 20 19 19 19 18 18 20 20 19 22 21 21 21 19 18 16 15 13 14 13 12 11 10 9 9 8 7 6 6 6 6 7 8 9 11 12 14
19 20 19 19 19 21 23 21 20 20 21 19 19 19 19 19 18 18 17 16 14 14 11 10 10 8 7 8 8 6 5 6 8 10 10 7 5 6 8 10 11 12 14
20 19 18 20 20 21 21 21 21 20 20 19 18 18 18 16 14 12 11 9 9 11 10 9 9 10 10 11 6 4 6 7 10 12 13 11 7 6 7 9 9 12 15
19 20 20 20 19 20 20 20 19 18 18 17 18 15 14 15 12 10 9 8 6 7 9 7 7 8 8 5 5 4 8 12 14 11 7 5 6 6 6 8 10 12 13
18 18 18 18 18 17 16 15 17 16 14 12 12 12 10 8 8 8 8 9 5 4 4 5 6 6 6 8 8 13 15 14 13 14 12 10 6 5 6 7 10 12 13

GFSGL_925_spd_078.txt.gz
Wind_Speed
29 28 28 27 29 29 32 35 36 35 36 36 40 39 38 37 38 39 39 41 41 41 42 41 44 41 39 42 45 42 35 32 20 31 32 37 39 41 43 43 43 43 44
34 31 30 29 29 31 28 31 36 37 38 39 40 38 36 38 41 42 41 36 39 38 41 42 46 43 43 43 39 38 37 37 30 26 32 32 36 44 42 42 43 43 44
33 34 33 32 31 30 30 29 32 36 38 37 38 38 39 38 39 42 43 41 42 45 41 40 43 39 40 38 37 36 37 36 31 29 33 36 35 33 38 40 43 43 44
31 31 32 33 32 31 32 30 32 35 35 37 38 38 40 38 39 40 42 43 42 41 41 45 44 42 45 42 39 40 39 34 32 30 32 35 34 32 38 30 29 35 41
24 27 32 35 36 36 35 34 34 32 36 36 35 37 38 40 41 40 39 38 39 40 40 43 45 46 49 49 43 42 37 33 33 33 32 33 32 22 24 32 29 32 29
22 22 18 20 23 29 33 36 36 35 33 33 37 37 38 40 42 44 42 38 38 38 40 41 43 43 50 53 55 55 46 37 36 33 34 32 35 34 32 35 34 18 6
4 1 4 18 26 29 32 32 33 35 35 37 37 38 39 42 43 44 43 45 39 40 40 39 39 42 44 48 52 55 55 55 54 48 42 40 40 39 34 29 31 20 11
22 19 16 12 7 5 24 29 31 32 35 36 37 38 38 41 42 43 45 46 46 45 43 43 43 45 44 47 47 45 48 52 55 53 47 41 36 23 19 22 23 15 13
23 20 18 16 16 12 8 5 12 27 30 33 33 32 35 40 33 40 42 48 45 45 45 44 43 42 44 45 44 45 36 24 16 20 17 13 8 7 9 13 16 18 5
21 19 18 17 16 15 14 12 11 13 13 21 11 10 6 11 13 25 33 36 34 37 37 40 41 42 41 41 40 42 28 21 21 25 26 24 19 18 14 14 12 14 11
17 18 21 20 17 18 16 15 13 9 5 9 12 12 11 11 10 13 14 17 22 22 18 11 9 12 15 18 22 19 22 28 25 25 26 26 24 24 22 18 16 15 16
21 24 26 26 23 25 23 21 19 14 15 17 18 21 20 21 24 21 16 12 8 19 25 26 28 31 30 28 31 34 32 28 29 29 27 22 25 22 19 17 15 14 13
23 23 24 27 28 27 29 28 25 21 16 16 17 17 17 19 23 30 31 34 35 37 31 32 32 37 38 35 32 31 29 27 26 24 19 20 22 16 15 13 12 11 10
18 19 21 26 29 30 28 28 25 22 18 16 15 15 15 17 20 24 29 29 39 38 36 36 34 36 35 33 30 27 28 27 26 22 20 19 17 17 17 13 13 11 10
17 17 18 20 22 27 35 31 28 33 24 19 19 19 18 20 20 19 21 24 28 28 27 30 27 29 30 29 28 24 24 23 22 21 19 16 15 15 15 13 14 13 12
16 16 17 18 19 20 21 28 38 38 38 35 30 28 31 27 25 25 24 24 24 24 29 24 22 23 22 21 21 21 22 20 18 19 19 14 13 13 14 14 14 14 11
19 18 18 19 18 18 18 17 17 25 35 36 34 31 30 28 26 24 24 25 26 28 27 23 22 22 21 21 21 20 18 14 14 17 16 13 12 12 13 12 12 11 9
21 21 20 19 19 19 19 19 20 19 19 22 29 30 29 28 27 23 21 23 28 27 25 22 21 20 20 18 17 16 15 14 15 15 15 13 11 12 13 13 12 12 9
19 20 21 22 23 23 23 24 23 21 20 19 22 24 22 23 25 26 25 27 22 21 20 22 20 19 18 18 16 16 15 15 14 14 14 13 12 13 15 14 12 12 10
22 20 20 20 20 21 21 21 20 19 19 19 20 19 17 19 25 25 23 22 22 19 18 18 17 16 16 15 13 13 13 13 13 13 12 11 10 10 11 11 12 13 14
19 19 19 20 19 19 18 19 18 18 18 19 20 17 17 22 20 21 21 20 18 17 15 15 15 14 13 12 11 11 12 12 11 10 9 9 9 9 9 11 11 12 11
18 18 18 19 18 18 18 18 18 17 16 17 17 16 16 18 18 19 19 18 15 14 12 11 12 12 10 10 9 8 8 8 8 8 9 8 6 6 7 7 8 9 11
17 17 17 17 18 17 18 18 18 18 16 16 16 16 16 17 16 16 14 13 11 11 10 10 10 10 8 7 6 6 7 9 10 11 11 8 7 5 5 6 7 9 11
15 16 17 17 17 17 18 18 17 16 15 15 14 13 13 13 13 12 10 8 7 7 7 8 8 9 10 8 8 7 8 10 12 13 11 8 5 3 3 3 4 6 8
16 16 16 16 16 16 16 16 16 14 13 12 11 10 9 7 7 7 8 8 5 4 5 7 9 10 10 7 6 8 10 11 10 9 7 5 4 3 2 2 3 7 9
16 15 15 14 13 13 12 11 11 11 11 9 7 5 5 4 4 5 7 7 5 5 5 6 5 6 7 8 10 10 10 10 12 13 9 6 4 3 3 4 4 7 9

GFSGL_925_spd_081.txt.gz
Wind_Speed
25 25 24 23 23 24 25 25 27 28 28 26 30 31 31 31 32 34 35 37 41 41 45 41 40 40 38 38 38 35 33 31 23 36 34 34 36 40 43 45 46 46 47
25 24 25 26 24 25 25 26 26 28 30 32 32 34 34 34 35 36 36 35 40 39 38 38 40 39 41 42 41 38 35 35 29 28 34 31 35 43 45 47 48 50 47
21 24 25 24 25 25 26 25 25 28 30 31 33 35 36 38 37 38 39 40 39 41 39 39 40 36 37 37 36 34 34 35 31 28 34 38 35 36 39 40 42 43 44
21 22 22 23 25 27 26 26 27 28 29 31 34 36 37 37 38 39 41 42 39 38 40 42 42 41 43 38 38 38 37 33 31 29 31 36 36 36 34 32 32 35 40
21 19 22 26 27 28 28 28 28 31 32 32 32 34 37 39 39 37 36 35 36 37 39 44 44 45 48 48 41 41 36 34 32 32 31 32 32 30 26 34 34 36 37
21 21 22 23 24 28 29 31 31 31 33 33 33 34 35 36 35 38 38 33 34 36 39 40 43 43 49 50 51 54 49 37 35 34 34 31 35 34 36 34 35 29 11
19 13 7 10 20 22 26 27 27 28 31 33 34 34 34 38 39 41 43 44 38 38 39 39 39 40 43 47 50 53 56 58 59 52 43 40 40 40 39 34 30 35 32
21 17 14 14 9 3 3 19 24 28 31 31 30 30 32 33 32 38 43 45 44 44 42 42 42 45 44 46 48 44 48 53 54 60 54 50 48 45 40 39 33 20 9
19 17 15 14 14 14 12 9 5 6 10 21 23 25 25 16 24 30 36 42 40 43 44 42 33 35 38 40 43 39 37 34 24 28 28 15 12 13 16 21 17 17 4
19 17 16 15 15 14 13 15 12 7 6 4 6 5 6 3 10 13 17 22 26 26 21 20 23 27 32 36 31 29 22 12 11 13 17 17 16 14 11 9 10 13 11
17 18 20 18 16 17 16 18 17 17 14 14 14 16 18 21 18 20 16 9 7 4 6 14 17 15 12 14 13 4 17 26 29 27 28 29 30 29 28 25 21 20 15
22 24 25 25 24 21 20 21 23 21 22 21 19 21 22 22 25 22 17 13 10 13 21 24 24 26 28 31 32 35 33 29 29 29 27 26 25 25 27 26 24 25 24
18 20 20 22 22 25 26 24 23 23 21 19 18 17 19 21 24 27 27 25 27 29 27 25 25 29 32 32 29 28 30 31 29 24 23 22 23 19 19 20 19 18 20
15 16 18 23 24 24 26 27 25 21 20 19 18 18 18 22 21 21 23 25 27 29 27 30 31 34 35 33 32 32 31 29 25 23 23 21 19 20 20 18 18 11 18
15 15 16 19 22 29 34 28 29 34 24 21 22 21 19 22 25 23 22 22 23 23 26 27 29 28 27 28 30 30 28 26 25 22 20 19 18 18 18 16 16 15 15
16 16 16 16 16 18 21 28 35 34 33 32 29 28 28 26 24 23 23 22 20 20 28 25 23 23 23 22 22 23 24 22 20 19 19 18 16 15 14 14 14 14 12
17 15 17 17 16 16 17 16 15 22 30 30 30 29 27 24 23 22 22 24 22 24 27 22 21 20 19 19 19 19 19 18 16 17 16 15 13 13 13 12 11 11 12
20 18 19 19 20 21 21 21 20 18 17 19 25 25 25 24 23 19 17 18 25 26 24 21 20 19 18 17 17 16 15 15 15 16 15 14 13 13 13 13 13 13 11
19 19 20 20 20 21 21 22 22 21 20 19 19 22 20 20 23 23 21 25 21 20 19 20 18 17 16 16 15 14 15 15 15 15 14 14 12 11 12 11 10 11 10
18 17 18 19 19 20 19 20 20 20 20 21 22 19 16 17 24 25 23 22 21 19 18 18 16 14 13 12 11 11 12 12 12 12 11 10 9 9 10 10 10 10 9
15 15 15 17 18 18 18 19 19 20 19 20 20 18 17 22 22 22 21 20 19 17 16 15 13 13 12 11 10 10 11 10 10 9 9 7 6 6 6 6 7 7 8
13 14 15 16 16 17 17 17 17 18 17 17 17 17 16 19 19 20 18 17 15 15 14 12 11 11 11 9 8 7 7 7 8 8 7 5 4 3 3 4 5 7 7
12 14 15 16 16 16 17 17 17 17 16 16 15 16 16 16 16 15 14 12 11 11 11 10 11 11 10 8 6 7 7 9 10 11 10 7 5 3 3 3 4 5 7
12 14 15 15 15 16 16 15 14 13 13 13 12 12 12 12 11 11 10 8 6 6 6 7 9 10 8 6 6 8 10 11 11 11 10 9 6 5 4 3 3 4 6
14 14 15 14 14 14 13 13 13 12 11 9 9 7 7 7 8 8 7 6 5 4 6 7 7 6 6 6 7 9 9 9 11 13 12 9 8 5 4 3 4 4 5
13 13 13 11 11 10 10 10 9 9 8 6 5 5 4 5 6 6 8 8 6 5 6 5 5 5 6 9 10 9 9 12 14 14 12 9 6 5 6 6 5 5 5

GFSGL_925_spd_084.txt.gz
Wind_Speed
19 21 17 17 17 18 20 20 19 19 20 22 24 29 32 32 32 37 35 32 35 33 32 34 35 39 36 35 40 41 33 32 17 22 30 34 36 38 47 47 48 45 47
21 19 19 19 17 18 18 19 19 21 21 23 23 26 29 32 28 28 30 30 33 34 36 32 35 36 40 39 37 35 34 34 30 26 35 35 38 45 45 47 49 50 51
20 20 17 16 19 20 18 17 17 18 19 22 23 25 27 29 31 30 30 31 33 35 36 35 40 36 37 34 36 36 35 35 32 26 31 35 35 35 39 43 47 45 47
19 19 20 20 17 16 15 16 17 18 21 23 25 27 27 28 29 30 32 33 34 36 38 39 39 38 38 35 34 34 36 30 29 26 28 31 32 35 34 32 32 35 41
17 18 20 20 21 19 18 18 17 17 18 18 21 24 26 28 30 31 32 34 37 37 39 40 42 43 45 43 35 35 32 30 30 30 30 31 31 32 32 34 32 35 37
14 15 13 16 17 18 19 20 21 22 22 22 23 23 24 26 27 29 32 33 34 35 37 39 43 44 47 48 50 51 48 37 34 33 33 30 32 35 36 34 34 29 15
20 15 13 6 8 12 16 19 21 23 26 28 28 28 28 29 26 29 32 34 34 34 35 36 35 35 39 44 48 49 50 52 56 50 39 35 36 37 35 34 32 31 32
21 16 15 12 10 8 6 4 5 11 17 23 25 28 28 15 22 27 31 35 37 37 36 37 35 36 37 37 39 39 40 42 38 43 39 33 31 30 35 32 26 16 3
20 18 17 15 13 13 12 10 8 6 5 6 4 2 4 2 6 14 23 24 29 32 23 16 19 24 26 29 31 28 22 12 3 7 15 6 3 10 13 14 8 12 1
19 16 16 17 17 17 16 15 13 11 11 13 18 19 17 14 15 10 8 6 8 8 4 6 13 14 15 18 19 17 7 10 9 13 15 17 18 19 15 8 7 12 10
19 20 23 20 20 18 20 20 18 19 19 20 21 21 22 23 22 18 13 11 10 13 18 23 23 23 22 14 10 4 8 18 21 22 23 24 25 29 28 25 20 20 18
22 24 23 25 23 23 23 22 22 20 22 21 22 24 23 24 27 25 21 19 17 23 23 23 22 28 29 31 32 29 28 25 26 29 28 24 26 28 27 25 26 27 24
21 22 21 21 24 27 26 23 23 22 19 18 18 18 19 21 21 22 25 23 25 29 26 23 23 25 27 31 29 26 26 26 28 29 23 22 23 20 19 20 21 20 21
20 21 22 26 26 26 29 28 24 21 18 17 17 17 19 20 20 20 22 23 23 26 26 28 31 32 33 32 31 31 30 28 27 23 20 18 17 18 19 16 13 10 17
18 17 18 19 23 29 33 29 30 30 23 21 21 19 17 20 21 19 20 21 23 24 25 26 29 29 29 29 29 27 25 24 24 20 19 17 15 14 15 13 13 13 14
15 15 16 16 17 18 22 28 31 30 31 28 24 24 24 21 19 20 19 18 17 18 25 26 24 23 21 20 21 22 22 21 19 17 17 15 14 13 12 13 13 13 12
15 12 14 16 17 17 18 16 15 22 27 27 26 24 22 18 18 18 19 20 20 21 28 22 20 19 17 18 19 18 17 17 15 17 15 13 11 11 12 12 11 10 10
20 19 19 19 19 19 20 20 20 19 17 21 21 23 22 21 19 15 14 16 24 25 23 21 19 19 18 17 17 16 16 16 17 17 16 15 13 12 11 10 10 10 8
19 19 19 19 19 19 19 20 20 20 20 19 17 18 17 18 20 21 19 24 23 22 20 20 18 17 16 15 15 15 15 16 16 15 15 14 13 12 11 10 9 10 9
17 16 16 17 17 17 17 18 18 19 20 20 21 18 15 15 21 23 23 22 21 19 18 17 16 14 13 13 12 11 12 12 13 12 12 10 10 9 9 8 8 8 7
13 13 13 14 16 16 16 17 17 18 19 20 19 17 16 20 21 20 20 19 18 17 15 14 14 13 12 12 11 10 11 11 10 9 8 7 6 6 6 6 6 7 8
10 12 13 15 14 15 15 14 15 16 17 17 17 17 16 18 18 18 17 15 14 14 14 13 12 11 10 9 9 9 9 9 9 9 7 6 5 5 5 5 5 5 6
11 11 13 13 13 13 14 14 15 15 15 14 14 14 15 15 14 13 12 10 10 11 11 11 10 9 9 8 8 8 9 10 11 11 10 8 6 5 4 4 4 4 6
11 11 13 12 12 13 13 12 12 11 11 10 10 10 10 10 10 10 9 7 6 6 7 8 8 8 7 6 8 9 9 10 11 12 12 9 7 6 5 4 3 4 6
11 12 12 12 11 10 10 10 9 8 8 7 6 5 6 5 6 6 7 7 7 6 6 5 4 4 4 6 8 8 7 8 11 12 13 11 8 6 5 5 5 5 6
10 10 10 9 9 8 8 7 7 6 5 4 3 3 3 5 6 8 8 7 6 5 5 5 6 7 8 9 8 7 8 10 12 13 12 11 8 6 6 5 5 6 6

GFSGL_925_spd_087.txt.gz
Wind_Speed
23 20 20 17 16 14 14 13 17 22 26 28 30 32 33 35 37 37 34 26 27 31 36 34 31 27 26 27 30 27 21 23 16 23 25 33 31 35 41 41 44 41 40
20 18 19 18 18 17 14 15 16 16 17 22 23 27 29 32 32 33 36 34 27 26 31 34 40 39 40 41 35 34 33 37 28 26 37 32 32 36 42 39 41 39 38
18 18 17 18 17 18 17 17 17 16 15 16 17 18 20 26 28 30 33 33 37 38 36 35 35 32 33 29 29 29 29 30 29 29 32 32 31 31 32 35 36 37 38
17 16 15 17 15 16 16 17 18 19 17 17 17 17 18 19 21 26 29 29 31 32 34 35 33 32 30 29 30 34 35 31 30 29 30 32 31 33 31 31 32 33 34
14 14 14 13 13 12 12 13 14 16 18 19 17 17 18 18 19 21 25 29 30 31 32 33 29 30 33 33 29 30 29 29 29 29 28 28 30 30 30 31 31 33 34
9 6 7 8 9 10 10 10 10 11 11 12 15 16 16 21 23 24 26 28 29 30 28 28 29 32 38 40 42 43 42 35 32 30 31 30 33 32 34 33 32 29 17
19 15 14 10 9 5 8 9 11 12 14 14 14 15 15 16 19 24 26 27 23 26 28 29 30 33 35 37 36 39 42 46 50 45 36 32 27 24 26 28 31 32 29
22 18 15 13 13 11 10 9 8 5 5 5 3 5 13 5 11 20 25 27 31 24 15 16 18 20 18 22 26 27 22 21 25 25 20 12 15 19 23 25 25 24 20
24 20 15 15 16 16 15 12 11 11 14 14 12 12 10 13 9 7 9 11 8 7 2 4 7 10 14 16 17 14 13 2 6 1 5 4 2 5 9 10 10 11 4
24 17 17 19 21 20 18 18 15 17 20 20 23 21 18 19 17 11 6 6 9 11 11 13 18 11 9 8 5 4 9 13 15 13 15 17 19 21 19 13 8 7 5
19 18 19 21 22 19 22 22 22 24 25 25 26 25 28 24 23 19 13 12 14 17 20 22 21 20 18 15 11 15 19 21 19 21 22 22 25 27 28 26 23 19 10
20 21 21 23 21 19 22 24 22 21 22 22 23 23 24 25 26 26 23 20 18 22 21 19 21 26 26 26 27 25 23 22 22 24 23 20 20 20 20 22 23 22 22
21 20 22 23 22 21 23 22 22 21 21 20 19 18 17 17 18 22 24 23 24 25 22 21 21 23 25 27 25 25 23 20 18 18 17 15 14 13 11 11 12 14 16
20 21 21 24 23 24 27 25 22 21 20 18 18 18 18 18 16 14 15 17 20 20 21 25 27 27 27 24 22 22 20 16 15 14 12 10 9 9 10 8 7 3 8
16 17 16 20 25 28 32 26 27 29 21 19 18 17 16 18 19 16 15 14 14 18 17 16 17 18 19 18 18 17 16 15 14 11 9 8 8 8 10 10 9 9 10
15 15 15 16 17 18 21 27 32 31 30 27 23 20 21 20 18 18 17 15 15 15 17 17 17 16 16 15 14 14 15 14 13 11 10 10 9 10 9 10 9 10 9
16 14 14 13 12 12 13 13 16 20 26 26 23 21 19 16 16 16 17 16 17 16 19 16 15 14 13 12 12 12 12 12 11 11 10 9 8 8 9 9 9 9 8
19 18 14 14 14 14 14 13 12 12 14 14 19 22 21 20 17 12 12 13 18 20 17 15 13 12 12 12 11 11 10 10 11 11 11 10 9 9 8 8 9 8 7
16 15 15 15 15 15 13 13 14 15 15 12 11 14 15 17 19 19 18 18 16 15 14 14 12 11 11 11 10 10 10 11 10 10 10 9 9 8 8 8 7 8 7
14 14 13 12 11 12 12 13 13 13 13 13 14 13 11 10 16 17 17 16 15 14 12 12 11 10 9 9 8 8 8 9 9 8 8 8 7 7 6 6 7 7 7
10 11 12 11 12 12 12 13 11 11 12 13 14 15 14 13 13 13 13 13 13 12 11 10 9 8 8 8 8 8 8 8 8 7 7 6 6 5 5 5 6 6 6
9 9 10 11 10 10 11 10 10 11 11 12 11 13 14 13 11 11 11 11 11 10 9 9 8 8 8 8 8 8 8 8 8 8 8 7 6 6 6 5 5 4 5
8 8 8 9 10 10 10 10 10 10 10 10 9 9 10 10 9 8 8 7 7 8 8 8 7 7 7 7 7 7 6 6 7 9 8 7 6 6 5 5 5 5 5
9 9 9 9 9 9 9 9 9 9 8 7 7 7 7 7 7 7 7 6 6 6 7 7 6 5 5 6 6 5 5 6 8 9 10 8 6 6 5 5 5 5 5
11 10 10 9 8 8 8 7 7 6 5 4 4 4 4 4 5 6 7 7 6 5 5 4 3 4 5 6 7 6 5 7 10 11 10 8 8 7 6 5 5 5 5
10 9 8 7 7 6 6 5 5 4 3 3 2 2 3 4 6 7 7 5 5 4 4 5 5 6 7 5 5 5 7 10 12 13 12 8 7 6 6 6 5 5 5

GFSGL_925_spd_090.txt.gz
Wind_Speed
21 19 17 14 11 10 9 12 19 26 30 30 28 27 31 33 32 31 31 26 26 24 28 27 27 26 26 25 21 24 24 22 16 25 25 23 19 22 27 39 43 42 42
21 19 17 14 13 11 11 11 17 22 25 27 32 26 29 32 33 32 29 30 28 24 25 24 27 25 29 31 24 24 28 31 24 26 35 31 31 38 38 32 34 35 36
19 20 17 15 15 14 12 12 13 15 20 25 27 27 28 30 31 33 33 31 34 30 28 24 25 26 31 32 32 33 33 33 29 30 33 33 33 32 33 36 37 37 38
17 20 18 16 14 13 12 13 14 14 15 16 18 21 26 27 28 31 34 31 34 31 31 29 31 33 34 36 33 34 32 30 28 25 25 30 32 37 34 32 32 33 34
19 17 16 15 14 13 12 12 12 14 13 14 16 17 19 21 22 25 27 30 30 28 28 31 31 33 37 32 29 29 29 28 27 27 26 28 30 29 28 29 29 31 33
13 11 14 14 14 14 14 13 11 11 11 11 10 11 13 13 16 21 20 21 23 24 23 24 26 29 32 33 35 38 36 30 28 24 22 24 27 28 30 30 30 27 17
18 16 15 13 12 10 8 8 9 11 12 11 11 12 10 10 18 21 23 20 15 18 21 22 24 25 25 28 31 32 35 41 45 39 28 24 18 14 15 18 19 13 10
19 18 16 15 14 12 13 12 11 11 13 12 11 12 10 3 10 17 20 21 13 5 5 7 9 12 15 19 21 20 14 13 14 14 10 7 12 16 18 19 18 18 12
22 21 18 16 16 14 15 14 14 16 18 17 15 14 11 11 6 1 5 8 9 6 4 4 3 6 9 9 9 8 5 7 8 9 9 8 6 7 8 6 6 4 1
24 22 20 23 24 19 17 18 18 22 26 24 24 21 20 17 13 8 10 13 16 14 12 12 16 11 7 4 4 10 15 10 12 11 17 13 18 18 16 13 7 5 4
28 22 20 26 28 20 22 23 23 25 28 27 28 27 26 25 23 17 14 15 18 19 20 20 19 18 16 13 12 13 14 13 15 14 16 16 17 19 19 18 17 13 9
31 23 29 28 22 19 20 21 22 22 23 21 21 21 22 24 23 25 23 22 18 21 19 19 21 23 25 25 25 22 20 17 15 14 13 13 13 13 13 15 16 15 13
30 27 29 25 21 20 18 18 19 19 17 16 16 17 17 15 18 25 25 25 25 24 19 19 18 20 22 24 23 21 19 16 14 13 12 11 10 9 8 8 8 7 10
26 26 26 26 22 21 22 22 20 18 16 15 15 16 16 16 15 13 14 16 19 19 19 19 20 20 21 19 18 19 18 16 13 12 10 9 8 8 9 8 7 5 5
22 22 22 21 24 27 31 26 27 30 20 17 17 17 16 18 18 16 13 13 14 15 15 15 14 14 15 15 16 15 14 13 12 11 10 9 8 8 8 9 8 6 5
20 19 16 15 17 16 18 25 30 28 28 27 24 21 21 20 17 17 17 17 16 14 14 15 14 13 13 13 13 13 13 13 12 11 10 10 9 9 9 8 8 7 6
16 15 14 14 14 13 11 10 12 17 25 27 25 23 20 16 15 16 19 19 16 14 15 14 14 12 11 12 11 11 11 11 10 10 10 9 9 8 8 8 8 8 7
17 15 14 14 13 13 10 10 11 11 12 14 20 20 20 19 18 12 12 11 15 16 14 13 11 10 10 10 10 10 9 9 10 9 9 9 9 8 8 8 8 8 8
13 13 12 12 12 11 10 10 10 11 11 10 9 12 13 14 17 18 16 14 14 13 12 12 11 11 10 9 9 9 8 8 8 8 8 8 8 8 7 7 7 6 9
13 13 11 10 10 10 10 10 10 9 9 10 11 10 8 8 12 14 15 14 14 13 12 12 11 10 9 8 8 7 7 8 8 7 7 7 7 7 7 7 8 9 9
9 10 10 10 10 10 9 9 9 9 10 11 12 12 13 11 12 13 13 14 13 12 11 10 9 8 7 7 7 7 8 7 8 7 7 7 7 7 8 8 8 8 9
9 9 9 9 9 9 9 9 9 9 9 9 9 11 11 11 11 11 11 11 10 10 9 8 7 7 6 7 7 7 7 7 7 8 8 8 8 8 8 8 9 9 9
8 7 7 7 7 7 7 8 8 8 8 8 8 8 9 10 10 9 8 8 7 7 6 6 5 5 5 6 6 6 5 6 7 8 8 8 8 9 9 9 9 9 9
8 7 7 7 7 6 6 7 7 8 7 6 7 7 7 7 7 7 6 5 5 5 5 5 4 3 4 4 5 5 4 4 6 7 9 9 9 9 9 9 9 9 10
8 7 6 6 5 5 5 5 5 5 5 5 5 5 5 5 5 5 5 5 4 4 4 3 2 4 5 6 6 5 6 7 9 10 9 9 10 10 9 9 9 10 10
7 7 6 5 5 5 5 4 5 5 4 4 3 3 3 3 4 5 5 4 4 4 4 4 4 5 5 4 4 6 9 11 11 14 12 8 9 9 9 9 9 10 10